| time (UTC) | temp F | wind direction | speed knots | gust knots | rain 1hr in | rain 24hr in | rain mn in | humidity % | barometer mb |
| 20260510234817 | 75 | 194 | 1.7 | 5.2 | 0.00 | 0.00 | 0.00 | 43 | 1016.4 |
| 20260510234715 | 75 | 198 | 1.7 | 5.2 | 0.00 | 0.00 | 0.00 | 44 | 1016.4 |
| 20260510234613 | 75 | 242 | 1.7 | 5.2 | 0.00 | 0.00 | 0.00 | 43 | 1016.3 |
| 20260510234514 | 76 | 182 | 0.9 | 3.5 | 0.00 | 0.00 | 0.00 | 43 | 1016.3 |
| 20260510234410 | 76 | 186 | 0.9 | 3.5 | 0.00 | 0.00 | 0.00 | 42 | 1016.3 |
| 20260510234306 | 76 | 196 | 0.9 | 3.5 | 0.00 | 0.00 | 0.00 | 42 | 1016.3 |
| 20260510234207 | 76 | 198 | 0.9 | 3.5 | 0.00 | 0.00 | 0.00 | 43 | 1016.4 |
| 20260510234106 | 76 | 198 | 1.7 | 3.5 | 0.00 | 0.00 | 0.00 | 42 | 1016.3 |
| 20260510234007 | 76 | 198 | 1.7 | 3.5 | 0.00 | 0.00 | 0.00 | 41 | 1016.3 |
| 20260510233904 | 76 | 198 | 0.9 | 3.5 | 0.00 | 0.00 | 0.00 | 41 | 1016.3 |
| 20260510233801 | 76 | 167 | 0.9 | 3.5 | 0.00 | 0.00 | 0.00 | 40 | 1016.4 |
| 20260510233658 | 76 | 173 | 0.9 | 3.5 | 0.00 | 0.00 | 0.00 | 40 | 1016.3 |
| 20260510233559 | 76 | 219 | 0.9 | 2.6 | 0.00 | 0.00 | 0.00 | 40 | 1016.3 |
| 20260510233457 | 77 | 220 | 0.9 | 2.6 | 0.00 | 0.00 | 0.00 | 40 | 1016.3 |
| 20260510233355 | 77 | 219 | 0.9 | 2.6 | 0.00 | 0.00 | 0.00 | 40 | 1016.2 |
| 20260510233252 | 77 | 219 | 0.9 | 2.6 | 0.00 | 0.00 | 0.00 | 40 | 1016.2 |
| 20260510233153 | 77 | 219 | 0.9 | 2.6 | 0.00 | 0.00 | 0.00 | 40 | 1016.2 |
| 20260510233052 | 77 | 220 | 0.9 | 2.6 | 0.00 | 0.00 | 0.00 | 41 | 1016.2 |
| 20260510232949 | 77 | 220 | 0.9 | 2.6 | 0.00 | 0.00 | 0.00 | 40 | 1016.2 |
| 20260510232849 | 77 | 221 | 0.9 | 2.6 | 0.00 | 0.00 | 0.00 | 40 | 1016.2 |
| 20260510232748 | 77 | 221 | 0.0 | 2.6 | 0.00 | 0.00 | 0.00 | 40 | 1016.2 |
| 20260510232647 | 77 | 221 | 0.9 | 2.6 | 0.00 | 0.00 | 0.00 | 39 | 1016.1 |
| 20260510232544 | 77 | 221 | 0.9 | 2.6 | 0.00 | 0.00 | 0.00 | 39 | 1016.2 |
| 20260510232445 | 77 | 221 | 0.9 | 2.6 | 0.00 | 0.00 | 0.00 | 40 | 1016.2 |
| 20260510232343 | 77 | 221 | 0.9 | 2.6 | 0.00 | 0.00 | 0.00 | 40 | 1016.2 |
| 20260510232240 | 77 | 221 | 0.9 | 2.6 | 0.00 | 0.00 | 0.00 | 40 | 1016.1 |
| 20260510232137 | 78 | 221 | 0.9 | 2.6 | 0.00 | 0.00 | 0.00 | 39 | 1016.1 |
| 20260510232036 | 78 | 232 | 0.9 | 2.6 | 0.00 | 0.00 | 0.00 | 40 | 1016.1 |
| 20260510231934 | 78 | 144 | 0.9 | 2.6 | 0.00 | 0.00 | 0.00 | 39 | 1016.1 |
| 20260510231833 | 78 | 144 | 0.9 | 2.6 | 0.00 | 0.00 | 0.00 | 39 | 1016.1 |
| 20260510231732 | 78 | 144 | 0.9 | 2.6 | 0.00 | 0.00 | 0.00 | 40 | 1016.1 |
| 20260510231632 | 78 | 144 | 0.9 | 2.6 | 0.00 | 0.00 | 0.00 | 39 | 1016.1 |
| 20260510231530 | 78 | 144 | 0.9 | 2.6 | 0.00 | 0.00 | 0.00 | 39 | 1016.1 |
| 20260510231428 | 78 | 144 | 0.9 | 2.6 | 0.00 | 0.00 | 0.00 | 39 | 1016.0 |
| 20260510231326 | 78 | 144 | 0.9 | 1.7 | 0.00 | 0.00 | 0.00 | 38 | 1016.0 |
| 20260510231225 | 78 | 144 | 0.9 | 1.7 | 0.00 | 0.00 | 0.00 | 39 | 1016.0 |
| 20260510231125 | 78 | 144 | 0.9 | 1.7 | 0.00 | 0.00 | 0.00 | 39 | 1016.1 |
| 20260510231024 | 78 | 144 | 0.9 | 1.7 | 0.00 | 0.00 | 0.00 | 40 | 1016.1 |
| 20260510230923 | 78 | 144 | 0.9 | 1.7 | 0.00 | 0.00 | 0.00 | 39 | 1016.0 |
| 20260510230820 | 78 | 144 | 0.9 | 1.7 | 0.00 | 0.00 | 0.00 | 39 | 1015.9 |
| 20260510230712 | 78 | 144 | 0.9 | 1.7 | 0.00 | 0.00 | 0.00 | 38 | 1016.0 |
| 20260510230610 | 78 | 144 | 0.9 | 1.7 | 0.00 | 0.00 | 0.00 | 39 | 1016.1 |
| 20260510230510 | 78 | 144 | 0.9 | 2.6 | 0.00 | 0.00 | 0.00 | 38 | 1016.0 |
| 20260510230411 | 78 | 144 | 0.9 | 2.6 | 0.00 | 0.00 | 0.00 | 39 | 1016.0 |
| 20260510230310 | 78 | 144 | 0.9 | 3.5 | 0.00 | 0.00 | 0.00 | 38 | 1016.0 |
| 20260510230204 | 78 | 142 | 0.9 | 4.3 | 0.00 | 0.00 | 0.00 | 39 | 1016.0 |
| 20260510230105 | 78 | 142 | 0.9 | 4.3 | 0.00 | 0.00 | 0.00 | 39 | 1015.9 |
| 20260510230006 | 78 | 143 | 0.9 | 4.3 | 0.00 | 0.00 | 0.00 | 38 | 1015.9 |
| 20260510225904 | 78 | 143 | 0.9 | 4.3 | 0.00 | 0.00 | 0.00 | 38 | 1015.9 |
| 20260510225805 | 79 | 143 | 0.9 | 4.3 | 0.00 | 0.00 | 0.00 | 38 | 1016.0 |
| 20260510225658 | 79 | 143 | 0.9 | 4.3 | 0.00 | 0.00 | 0.00 | 38 | 1016.0 |
| 20260510225559 | 79 | 143 | 0.9 | 4.3 | 0.00 | 0.00 | 0.00 | 37 | 1016.0 |
| 20260510225458 | 79 | 143 | 0.9 | 4.3 | 0.00 | 0.00 | 0.00 | 37 | 1016.0 |
| 20260510225359 | 79 | 142 | 0.0 | 4.3 | 0.00 | 0.00 | 0.00 | 37 | 1015.9 |
| 20260510225259 | 79 | 146 | 0.0 | 4.3 | 0.00 | 0.00 | 0.00 | 38 | 1015.9 |
| 20260510225156 | 79 | 159 | 0.0 | 0.0 | 0.00 | 0.00 | 0.00 | 38 | 1016.0 |
| 20260510225052 | 79 | 159 | 0.0 | 0.0 | 0.00 | 0.00 | 0.00 | 37 | 1015.8 |
| 20260510224953 | 79 | 163 | 0.0 | 0.0 | 0.00 | 0.00 | 0.00 | 36 | 1015.9 |
| 20260510224850 | 79 | 163 | 0.0 | 0.0 | 0.00 | 0.00 | 0.00 | 37 | 1015.9 |
| 20260510224749 | 79 | 161 | 0.0 | 0.0 | 0.00 | 0.00 | 0.00 | 37 | 1016.0 |
| 20260510224648 | 79 | 161 | 0.0 | 0.0 | 0.00 | 0.00 | 0.00 | 37 | 1016.0 |
| 20260510224547 | 79 | 161 | 0.0 | 0.0 | 0.00 | 0.00 | 0.00 | 37 | 1015.9 |
| 20260510224444 | 79 | 161 | 0.0 | 0.0 | 0.00 | 0.00 | 0.00 | 37 | 1015.9 |
| 20260510224345 | 79 | 161 | 0.0 | 0.0 | 0.00 | 0.00 | 0.00 | 36 | 1015.9 |
| 20260510224242 | 79 | 161 | 0.0 | 0.0 | 0.00 | 0.00 | 0.00 | 36 | 1015.9 |
| 20260510224142 | 80 | 161 | 0.0 | 0.0 | 0.00 | 0.00 | 0.00 | 36 | 1016.0 |
| 20260510224041 | 80 | 161 | 0.0 | 0.0 | 0.00 | 0.00 | 0.00 | 37 | 1015.9 |
| 20260510223938 | 80 | 161 | 0.0 | 0.0 | 0.00 | 0.00 | 0.00 | 36 | 1015.9 |
| 20260510223839 | 80 | 71 | 0.0 | 0.0 | 0.00 | 0.00 | 0.00 | 37 | 1016.0 |
| 20260510223737 | 80 | 71 | 0.0 | 0.0 | 0.00 | 0.00 | 0.00 | 36 | 1015.9 |
| 20260510223634 | 80 | 71 | 0.0 | 0.0 | 0.00 | 0.00 | 0.00 | 36 | 1015.9 |
| 20260510223532 | 80 | 71 | 0.0 | 0.0 | 0.00 | 0.00 | 0.00 | 36 | 1015.9 |
| 20260510223431 | 80 | 26 | 0.0 | 0.0 | 0.00 | 0.00 | 0.00 | 38 | 1015.9 |
| 20260510223327 | 80 | 18 | 0.0 | 0.0 | 0.00 | 0.00 | 0.00 | 37 | 1015.9 |
| 20260510223226 | 80 | 18 | 0.0 | 0.0 | 0.00 | 0.00 | 0.00 | 36 | 1015.9 |
| 20260510223123 | 80 | 17 | 0.0 | 0.0 | 0.00 | 0.00 | 0.00 | 36 | 1015.9 |
| 20260510223020 | 80 | 17 | 0.0 | 0.0 | 0.00 | 0.00 | 0.00 | 35 | 1015.9 |
| 20260510222921 | 80 | 17 | 0.0 | 0.0 | 0.00 | 0.00 | 0.00 | 36 | 1015.9 |
| 20260510222821 | 80 | 10 | 0.0 | 0.0 | 0.00 | 0.00 | 0.00 | 37 | 1015.9 |
| 20260510222720 | 80 | 339 | 0.0 | 0.0 | 0.00 | 0.00 | 0.00 | 36 | 1016.0 |
| 20260510222627 | 80 | 339 | 0.0 | 0.0 | 0.00 | 0.00 | 0.00 | 35 | 1015.9 |
| 20260510222518 | 80 | 340 | 0.0 | 0.0 | 0.00 | 0.00 | 0.00 | 36 | 1015.9 |
| 20260510222417 | 80 | 196 | 0.0 | 0.0 | 0.00 | 0.00 | 0.00 | 35 | 1015.9 |
| 20260510222317 | 80 | 195 | 0.0 | 0.0 | 0.00 | 0.00 | 0.00 | 36 | 1015.9 |
| 20260510222215 | 80 | 269 | 0.0 | 0.0 | 0.00 | 0.00 | 0.00 | 36 | 1015.9 |
| 20260510222106 | 80 | 289 | 0.0 | 0.0 | 0.00 | 0.00 | 0.00 | 36 | 1015.9 |
| 20260510222004 | 80 | 297 | 0.0 | 0.0 | 0.00 | 0.00 | 0.00 | 36 | 1015.8 |
| 20260510221904 | 80 | 339 | 0.0 | 0.0 | 0.00 | 0.00 | 0.00 | 37 | 1015.8 |
| 20260510221805 | 80 | 165 | 0.0 | 0.0 | 0.00 | 0.00 | 0.00 | 35 | 1015.8 |
| 20260510221705 | 80 | 165 | 0.0 | 0.0 | 0.00 | 0.00 | 0.00 | 36 | 1015.9 |
| 20260510221600 | 80 | 163 | 0.0 | 0.0 | 0.00 | 0.00 | 0.00 | 35 | 1015.9 |
| 20260510221500 | 80 | 163 | 0.0 | 0.0 | 0.00 | 0.00 | 0.00 | 37 | 1015.9 |
| 20260510221401 | 80 | 163 | 0.0 | 0.0 | 0.00 | 0.00 | 0.00 | 36 | 1015.9 |
| 20260510221300 | 80 | 163 | 0.0 | 0.0 | 0.00 | 0.00 | 0.00 | 36 | 1015.9 |
| 20260510221159 | 80 | 164 | 0.0 | 0.0 | 0.00 | 0.00 | 0.00 | 35 | 1015.8 |
| 20260510221057 | 80 | 164 | 0.0 | 0.0 | 0.00 | 0.00 | 0.00 | 37 | 1015.9 |
| 20260510220955 | 80 | 164 | 0.0 | 0.0 | 0.00 | 0.00 | 0.00 | 37 | 1015.9 |
| 20260510220854 | 80 | 165 | 0.0 | 0.0 | 0.00 | 0.00 | 0.00 | 36 | 1015.9 |
| 20260510220755 | 80 | 166 | 0.0 | 0.0 | 0.00 | 0.00 | 0.00 | 34 | 1015.8 |
| 20260510220653 | 80 | 166 | 0.0 | 0.0 | 0.00 | 0.00 | 0.00 | 34 | 1015.8 |
| 20260510220547 | 80 | 166 | 0.0 | 0.0 | 0.00 | 0.00 | 0.00 | 34 | 1015.8 |
| 20260510220447 | 80 | 169 | 0.0 | 0.0 | 0.00 | 0.00 | 0.00 | 35 | 1015.8 |
| 20260510220345 | 80 | 190 | 0.0 | 0.0 | 0.00 | 0.00 | 0.00 | 37 | 1015.8 |
| 20260510220245 | 80 | 192 | 0.0 | 0.0 | 0.00 | 0.00 | 0.00 | 34 | 1015.8 |
| 20260510220142 | 80 | 306 | 0.0 | 0.0 | 0.00 | 0.00 | 0.00 | 35 | 1015.8 |
| 20260510220039 | 80 | 303 | 0.0 | 0.0 | 0.00 | 0.00 | 0.00 | 35 | 1015.9 |
| 20260510215938 | 80 | 277 | 0.0 | 0.0 | 0.00 | 0.00 | 0.00 | 34 | 1015.8 |
| 20260510215837 | 80 | 315 | 0.0 | 0.0 | 0.00 | 0.00 | 0.00 | 35 | 1015.8 |
| 20260510215736 | 80 | 300 | 0.0 | 0.0 | 0.00 | 0.00 | 0.00 | 34 | 1015.8 |
| 20260510215637 | 80 | 240 | 0.0 | 0.0 | 0.00 | 0.00 | 0.00 | 35 | 1015.8 |
| 20260510215535 | 80 | 329 | 0.0 | 0.0 | 0.00 | 0.00 | 0.00 | 36 | 1015.8 |
| 20260510215434 | 80 | 85 | 0.0 | 0.0 | 0.00 | 0.00 | 0.00 | 34 | 1015.8 |
| 20260510215332 | 80 | 23 | 0.0 | 0.0 | 0.00 | 0.00 | 0.00 | 34 | 1015.9 |
| 20260510215233 | 80 | 347 | 0.0 | 0.0 | 0.00 | 0.00 | 0.00 | 34 | 1015.8 |
| 20260510215131 | 80 | 347 | 0.0 | 0.0 | 0.00 | 0.00 | 0.00 | 34 | 1015.8 |
| 20260510215022 | 80 | 348 | 0.0 | 0.0 | 0.00 | 0.00 | 0.00 | 34 | 1015.7 |
| 20260510214919 | 80 | 351 | 0.0 | 0.0 | 0.00 | 0.00 | 0.00 | 35 | 1015.8 |
| 20260510214821 | 80 | 337 | 0.0 | 0.0 | 0.00 | 0.00 | 0.00 | 37 | 1015.8 |
| 20260510214720 | 80 | 161 | 0.0 | 0.0 | 0.00 | 0.00 | 0.00 | 36 | 1015.8 |
| 20260510214621 | 80 | 161 | 0.0 | 0.0 | 0.00 | 0.00 | 0.00 | 34 | 1015.8 |
| 20260510214519 | 80 | 161 | 0.0 | 0.0 | 0.00 | 0.00 | 0.00 | 34 | 1015.8 |
| 20260510214418 | 80 | 163 | 0.0 | 0.0 | 0.00 | 0.00 | 0.00 | 34 | 1015.8 |
| 20260510214318 | 80 | 142 | 0.0 | 0.0 | 0.00 | 0.00 | 0.00 | 34 | 1015.8 |
| 20260510214217 | 80 | 148 | 0.0 | 0.0 | 0.00 | 0.00 | 0.00 | 37 | 1015.8 |
| 20260510214115 | 80 | 179 | 0.0 | 0.0 | 0.00 | 0.00 | 0.00 | 36 | 1015.8 |
| 20260510214012 | 80 | 179 | 0.0 | 0.0 | 0.00 | 0.00 | 0.00 | 34 | 1015.8 |
| 20260510213914 | 80 | 179 | 0.0 | 0.0 | 0.00 | 0.00 | 0.00 | 35 | 1015.8 |
| 20260510213810 | 80 | 217 | 0.0 | 0.0 | 0.00 | 0.00 | 0.00 | 34 | 1015.8 |
| 20260510213711 | 80 | 302 | 0.0 | 0.0 | 0.00 | 0.00 | 0.00 | 34 | 1015.8 |
| 20260510213608 | 80 | 299 | 0.0 | 0.0 | 0.00 | 0.00 | 0.00 | 33 | 1015.8 |
| 20260510213501 | 81 | 243 | 0.0 | 0.0 | 0.00 | 0.00 | 0.00 | 36 | 1015.8 |
| 20260510213400 | 81 | 147 | 0.0 | 0.0 | 0.00 | 0.00 | 0.00 | 34 | 1015.8 |
| 20260510213300 | 81 | 202 | 0.0 | 0.0 | 0.00 | 0.00 | 0.00 | 34 | 1015.8 |
| 20260510213200 | 81 | 318 | 0.0 | 0.0 | 0.00 | 0.00 | 0.00 | 34 | 1015.7 |
| 20260510213057 | 81 | 348 | 0.0 | 0.0 | 0.00 | 0.00 | 0.00 | 33 | 1015.8 |
| 20260510212952 | 81 | 355 | 0.0 | 0.0 | 0.00 | 0.00 | 0.00 | 33 | 1015.8 |
| 20260510212850 | 81 | 303 | 0.0 | 0.0 | 0.00 | 0.00 | 0.00 | 34 | 1015.8 |
| 20260510212750 | 81 | 342 | 0.0 | 0.0 | 0.00 | 0.00 | 0.00 | 35 | 1015.7 |
| 20260510212651 | 81 | 188 | 0.0 | 0.0 | 0.00 | 0.00 | 0.00 | 34 | 1015.8 |
| 20260510212550 | 81 | 188 | 0.0 | 0.0 | 0.00 | 0.00 | 0.00 | 34 | 1015.8 |
| 20260510212447 | 81 | 221 | 0.0 | 0.0 | 0.00 | 0.00 | 0.00 | 33 | 1015.8 |
| 20260510212345 | 81 | 289 | 0.0 | 0.0 | 0.00 | 0.00 | 0.00 | 32 | 1015.8 |
| 20260510212245 | 81 | 250 | 0.0 | 0.0 | 0.00 | 0.00 | 0.00 | 33 | 1015.8 |
| 20260510212146 | 81 | 261 | 0.0 | 0.0 | 0.00 | 0.00 | 0.00 | 34 | 1015.8 |
| 20260510212045 | 81 | 256 | 0.0 | 0.0 | 0.00 | 0.00 | 0.00 | 35 | 1015.9 |
| 20260510211938 | 81 | 183 | 0.0 | 0.0 | 0.00 | 0.00 | 0.00 | 33 | 1015.9 |
| 20260510211837 | 81 | 183 | 0.0 | 0.0 | 0.00 | 0.00 | 0.00 | 33 | 1016.0 |
| 20260510211738 | 81 | 184 | 0.0 | 0.0 | 0.00 | 0.00 | 0.00 | 33 | 1015.9 |
| 20260510211637 | 81 | 186 | 0.0 | 0.0 | 0.00 | 0.00 | 0.00 | 33 | 1015.8 |
| 20260510211535 | 81 | 169 | 0.0 | 0.0 | 0.00 | 0.00 | 0.00 | 34 | 1015.9 |
| 20260510211432 | 81 | 169 | 0.0 | 0.0 | 0.00 | 0.00 | 0.00 | 33 | 1015.9 |
| 20260510211332 | 81 | 171 | 0.0 | 0.0 | 0.00 | 0.00 | 0.00 | 33 | 1015.9 |
| 20260510211231 | 81 | 172 | 0.0 | 0.0 | 0.00 | 0.00 | 0.00 | 31 | 1015.9 |
| 20260510211130 | 81 | 169 | 0.0 | 0.0 | 0.00 | 0.00 | 0.00 | 32 | 1015.9 |
| 20260510211028 | 81 | 121 | 0.0 | 0.0 | 0.00 | 0.00 | 0.00 | 34 | 1015.9 |
| 20260510210923 | 81 | 76 | 0.0 | 0.0 | 0.00 | 0.00 | 0.00 | 33 | 1015.9 |
| 20260510210824 | 81 | 109 | 0.0 | 0.0 | 0.00 | 0.00 | 0.00 | 36 | 1016.0 |
| 20260510210723 | 81 | 37 | 0.0 | 0.0 | 0.00 | 0.00 | 0.00 | 35 | 1015.9 |
| 20260510210625 | 81 | 338 | 0.0 | 0.0 | 0.00 | 0.00 | 0.00 | 35 | 1015.8 |
| 20260510210522 | 81 | 42 | 0.0 | 0.0 | 0.00 | 0.00 | 0.00 | 35 | 1015.9 |
| 20260510210414 | 81 | 59 | 0.0 | 0.0 | 0.00 | 0.00 | 0.00 | 35 | 1016.0 |
| 20260510210314 | 81 | 322 | 0.0 | 0.0 | 0.00 | 0.00 | 0.00 | 33 | 1015.9 |
| 20260510210214 | 81 | 135 | 0.0 | 0.0 | 0.00 | 0.00 | 0.00 | 36 | 1016.0 |
| 20260510210114 | 81 | 135 | 0.0 | 0.0 | 0.00 | 0.00 | 0.00 | 34 | 1016.0 |
| 20260510210013 | 81 | 322 | 0.0 | 0.0 | 0.00 | 0.00 | 0.00 | 37 | 1015.9 |
| 20260510205910 | 81 | 323 | 0.0 | 0.0 | 0.00 | 0.00 | 0.00 | 36 | 1015.9 |
| 20260510205811 | 81 | 319 | 0.0 | 0.0 | 0.00 | 0.00 | 0.00 | 36 | 1015.9 |
| 20260510205710 | 81 | 319 | 0.0 | 0.0 | 0.00 | 0.00 | 0.00 | 35 | 1016.0 |
| 20260510205608 | 81 | 302 | 0.0 | 0.0 | 0.00 | 0.00 | 0.00 | 35 | 1015.9 |
| 20260510205507 | 81 | 0 | 0.0 | 0.0 | 0.00 | 0.00 | 0.00 | 35 | 1015.8 |
| 20260510205402 | 81 | 234 | 0.0 | 0.0 | 0.00 | 0.00 | 0.00 | 34 | 1015.8 |
| 20260510205300 | 81 | 320 | 0.0 | 0.0 | 0.00 | 0.00 | 0.00 | 34 | 1015.9 |
| 20260510205202 | 81 | 341 | 0.0 | 0.0 | 0.00 | 0.00 | 0.00 | 35 | 1016.0 |
| 20260510205101 | 81 | 342 | 0.0 | 0.0 | 0.00 | 0.00 | 0.00 | 33 | 1015.9 |
| 20260510205001 | 81 | 296 | 0.0 | 0.0 | 0.00 | 0.00 | 0.00 | 33 | 1015.9 |
| 20260510204852 | 81 | 291 | 0.0 | 0.0 | 0.00 | 0.00 | 0.00 | 33 | 1015.9 |
| 20260510204751 | 81 | 324 | 0.0 | 0.0 | 0.00 | 0.00 | 0.00 | 32 | 1015.9 |
| 20260510204651 | 81 | 142 | 0.0 | 0.0 | 0.00 | 0.00 | 0.00 | 32 | 1015.9 |
| 20260510204550 | 81 | 143 | 0.0 | 0.0 | 0.00 | 0.00 | 0.00 | 32 | 1015.9 |
| 20260510204451 | 81 | 252 | 0.0 | 0.0 | 0.00 | 0.00 | 0.00 | 33 | 1015.8 |
| 20260510204348 | 81 | 252 | 0.0 | 0.0 | 0.00 | 0.00 | 0.00 | 34 | 1015.9 |
| 20260510204249 | 81 | 205 | 0.0 | 0.0 | 0.00 | 0.00 | 0.00 | 34 | 1015.9 |
| 20260510204147 | 81 | 349 | 0.0 | 0.0 | 0.00 | 0.00 | 0.00 | 35 | 1015.9 |
| 20260510204047 | 81 | 170 | 0.0 | 0.0 | 0.00 | 0.00 | 0.00 | 32 | 1015.9 |
| 20260510203945 | 81 | 179 | 0.0 | 0.0 | 0.00 | 0.00 | 0.00 | 34 | 1015.8 |
| 20260510203841 | 81 | 182 | 0.0 | 0.0 | 0.00 | 0.00 | 0.00 | 32 | 1015.9 |
| 20260510203737 | 81 | 163 | 0.0 | 0.0 | 0.00 | 0.00 | 0.00 | 32 | 1015.8 |
| 20260510203639 | 81 | 227 | 0.0 | 0.0 | 0.00 | 0.00 | 0.00 | 33 | 1015.9 |
| 20260510203538 | 81 | 304 | 0.0 | 0.0 | 0.00 | 0.00 | 0.00 | 33 | 1015.8 |
| 20260510203438 | 81 | 159 | 0.0 | 0.0 | 0.00 | 0.00 | 0.00 | 33 | 1015.9 |
| 20260510203333 | 81 | 134 | 0.0 | 0.0 | 0.00 | 0.00 | 0.00 | 36 | 1015.9 |
| 20260510203232 | 81 | 58 | 0.0 | 0.0 | 0.00 | 0.00 | 0.00 | 32 | 1015.9 |
| 20260510203131 | 81 | 58 | 0.0 | 0.0 | 0.00 | 0.00 | 0.00 | 34 | 1015.9 |
| 20260510203031 | 81 | 59 | 0.0 | 0.0 | 0.00 | 0.00 | 0.00 | 33 | 1015.9 |
| 20260510202929 | 81 | 50 | 0.0 | 3.5 | 0.00 | 0.00 | 0.00 | 35 | 1015.9 |
| 20260510202824 | 81 | 196 | 0.0 | 3.5 | 0.00 | 0.00 | 0.00 | 33 | 1015.9 |
| 20260510202723 | 81 | 288 | 0.0 | 3.5 | 0.00 | 0.00 | 0.00 | 32 | 1015.9 |
| 20260510202622 | 81 | 292 | 0.0 | 3.5 | 0.00 | 0.00 | 0.00 | 30 | 1016.0 |
| 20260510202522 | 81 | 297 | 0.0 | 3.5 | 0.00 | 0.00 | 0.00 | 30 | 1016.0 |
| 20260510202422 | 81 | 325 | 0.0 | 3.5 | 0.00 | 0.00 | 0.00 | 31 | 1015.9 |
| 20260510202318 | 81 | 282 | 0.0 | 3.5 | 0.00 | 0.00 | 0.00 | 31 | 1015.9 |
| 20260510202218 | 81 | 288 | 0.0 | 3.5 | 0.00 | 0.00 | 0.00 | 32 | 1016.0 |
| 20260510202118 | 81 | 307 | 0.0 | 3.5 | 0.00 | 0.00 | 0.00 | 34 | 1015.9 |
| 20260510202019 | 81 | 119 | 0.0 | 3.5 | 0.00 | 0.00 | 0.00 | 31 | 1016.0 |
| 20260510201917 | 81 | 122 | 0.9 | 3.5 | 0.00 | 0.00 | 0.00 | 34 | 1015.9 |
| 20260510201809 | 81 | 117 | 0.9 | 3.5 | 0.00 | 0.00 | 0.00 | 35 | 1015.9 |
| 20260510201706 | 81 | 146 | 0.9 | 3.5 | 0.00 | 0.00 | 0.00 | 34 | 1015.9 |
| 20260510201606 | 81 | 146 | 0.9 | 3.5 | 0.00 | 0.00 | 0.00 | 34 | 1016.0 |
| 20260510201506 | 81 | 292 | 0.9 | 3.5 | 0.00 | 0.00 | 0.00 | 36 | 1016.0 |
| 20260510201407 | 81 | 99 | 0.9 | 3.5 | 0.00 | 0.00 | 0.00 | 34 | 1016.0 |
| 20260510201301 | 81 | 184 | 0.9 | 3.5 | 0.00 | 0.00 | 0.00 | 34 | 1016.0 |
| 20260510201200 | 81 | 85 | 0.9 | 3.5 | 0.00 | 0.00 | 0.00 | 35 | 1016.0 |
| 20260510201101 | 81 | 40 | 1.7 | 3.5 | 0.00 | 0.00 | 0.00 | 33 | 1016.0 |
| 20260510201000 | 81 | 61 | 1.7 | 5.2 | 0.00 | 0.00 | 0.00 | 35 | 1016.1 |
| 20260510200901 | 81 | 126 | 1.7 | 7.8 | 0.00 | 0.00 | 0.00 | 32 | 1016.1 |
| 20260510200757 | 81 | 144 | 1.7 | 10.4 | 0.00 | 0.00 | 0.00 | 32 | 1016.0 |
| 20260510200655 | 81 | 140 | 2.6 | 10.4 | 0.00 | 0.00 | 0.00 | 33 | 1016.1 |
| 20260510200555 | 81 | 138 | 2.6 | 10.4 | 0.00 | 0.00 | 0.00 | 36 | 1016.0 |
| 20260510200454 | 81 | 138 | 2.6 | 10.4 | 0.00 | 0.00 | 0.00 | 33 | 1016.1 |
| 20260510200355 | 81 | 138 | 2.6 | 10.4 | 0.00 | 0.00 | 0.00 | 33 | 1016.1 |
| 20260510200247 | 81 | 135 | 2.6 | 10.4 | 0.00 | 0.00 | 0.00 | 33 | 1016.1 |
| 20260510200145 | 81 | 134 | 1.7 | 10.4 | 0.00 | 0.00 | 0.00 | 32 | 1016.0 |
| 20260510200044 | 81 | 165 | 1.7 | 10.4 | 0.00 | 0.00 | 0.00 | 32 | 1016.2 |
| 20260510195944 | 81 | 183 | 0.9 | 10.4 | 0.00 | 0.00 | 0.00 | 33 | 1016.1 |
| 20260510195845 | 81 | 141 | 0.9 | 10.4 | 0.00 | 0.00 | 0.00 | 34 | 1016.1 |
| 20260510195737 | 81 | 102 | 0.9 | 6.1 | 0.00 | 0.00 | 0.00 | 34 | 1016.1 |
| 20260510195639 | 81 | 97 | 0.0 | 6.1 | 0.00 | 0.00 | 0.00 | 33 | 1016.1 |
| 20260510195540 | 81 | 79 | 0.0 | 3.5 | 0.00 | 0.00 | 0.00 | 34 | 1016.1 |
| 20260510195439 | 81 | 81 | 0.0 | 3.5 | 0.00 | 0.00 | 0.00 | 35 | 1016.1 |
| 20260510195339 | 81 | 60 | 0.9 | 3.5 | 0.00 | 0.00 | 0.00 | 35 | 1016.1 |
| 20260510195233 | 81 | 294 | 0.9 | 4.3 | 0.00 | 0.00 | 0.00 | 32 | 1016.1 |
| 20260510195135 | 81 | 255 | 0.9 | 4.3 | 0.00 | 0.00 | 0.00 | 32 | 1016.2 |
| 20260510195034 | 81 | 186 | 0.9 | 4.3 | 0.00 | 0.00 | 0.00 | 31 | 1016.1 |
| 20260510194935 | 81 | 185 | 0.9 | 5.2 | 0.00 | 0.00 | 0.00 | 31 | 1016.1 |
| 20260510194832 | 81 | 183 | 0.9 | 5.2 | 0.00 | 0.00 | 0.00 | 31 | 1016.1 |
| 20260510194724 | 81 | 196 | 0.9 | 5.2 | 0.00 | 0.00 | 0.00 | 32 | 1016.1 |
| 20260510194625 | 81 | 175 | 1.7 | 5.2 | 0.00 | 0.00 | 0.00 | 31 | 1016.2 |
| 20260510194525 | 81 | 187 | 1.7 | 7.0 | 0.00 | 0.00 | 0.00 | 31 | 1016.1 |
| 20260510194424 | 81 | 288 | 1.7 | 7.0 | 0.00 | 0.00 | 0.00 | 32 | 1016.1 |
| 20260510194322 | 81 | 163 | 1.7 | 7.0 | 0.00 | 0.00 | 0.00 | 32 | 1016.3 |
| 20260510194219 | 81 | 183 | 1.7 | 7.0 | 0.00 | 0.00 | 0.00 | 33 | 1016.2 |
| 20260510194116 | 80 | 182 | 1.7 | 7.0 | 0.00 | 0.00 | 0.00 | 33 | 1016.2 |
| 20260510194017 | 80 | 170 | 1.7 | 7.0 | 0.00 | 0.00 | 0.00 | 33 | 1016.3 |
| 20260510193917 | 80 | 331 | 2.6 | 7.0 | 0.00 | 0.00 | 0.00 | 34 | 1016.3 |
| 20260510193816 | 80 | 328 | 2.6 | 7.0 | 0.00 | 0.00 | 0.00 | 33 | 1016.2 |
| 20260510193717 | 80 | 257 | 2.6 | 7.8 | 0.00 | 0.00 | 0.00 | 33 | 1016.2 |
| 20260510193615 | 80 | 120 | 2.6 | 7.8 | 0.00 | 0.00 | 0.00 | 33 | 1016.2 |
| 20260510193514 | 80 | 157 | 2.6 | 7.8 | 0.00 | 0.00 | 0.00 | 35 | 1016.2 |
| 20260510193413 | 80 | 179 | 2.6 | 7.8 | 0.00 | 0.00 | 0.00 | 33 | 1016.3 |
| 20260510193311 | 80 | 180 | 2.6 | 7.8 | 0.00 | 0.00 | 0.00 | 34 | 1016.3 |
| 20260510193200 | 80 | 196 | 2.6 | 7.8 | 0.00 | 0.00 | 0.00 | 33 | 1016.2 |
| 20260510193100 | 80 | 210 | 2.6 | 7.8 | 0.00 | 0.00 | 0.00 | 33 | 1016.3 |
| 20260510193002 | 80 | 134 | 2.6 | 7.8 | 0.00 | 0.00 | 0.00 | 33 | 1016.3 |
| 20260510192901 | 80 | 117 | 2.6 | 7.8 | 0.00 | 0.00 | 0.00 | 34 | 1016.3 |
| 20260510192800 | 80 | 131 | 1.7 | 7.8 | 0.00 | 0.00 | 0.00 | 34 | 1016.4 |
| 20260510192657 | 80 | 130 | 1.7 | 5.2 | 0.00 | 0.00 | 0.00 | 36 | 1016.3 |
| 20260510192555 | 80 | 279 | 2.6 | 5.2 | 0.00 | 0.00 | 0.00 | 34 | 1016.3 |
| 20260510192455 | 80 | 195 | 2.6 | 7.0 | 0.00 | 0.00 | 0.00 | 35 | 1016.3 |
| 20260510192353 | 80 | 285 | 2.6 | 7.0 | 0.00 | 0.00 | 0.00 | 33 | 1016.4 |
| 20260510192254 | 80 | 177 | 3.5 | 7.0 | 0.00 | 0.00 | 0.00 | 36 | 1016.4 |
| 20260510192148 | 80 | 134 | 3.5 | 7.0 | 0.00 | 0.00 | 0.00 | 34 | 1016.4 |
| 20260510192048 | 80 | 134 | 3.5 | 7.0 | 0.00 | 0.00 | 0.00 | 36 | 1016.4 |
| 20260510191949 | 80 | 142 | 3.5 | 7.0 | 0.00 | 0.00 | 0.00 | 35 | 1016.4 |
| 20260510191850 | 80 | 169 | 2.6 | 7.0 | 0.00 | 0.00 | 0.00 | 34 | 1016.4 |
| 20260510191749 | 80 | 148 | 2.6 | 7.0 | 0.00 | 0.00 | 0.00 | 34 | 1016.4 |
| 20260510191639 | 80 | 132 | 2.6 | 7.0 | 0.00 | 0.00 | 0.00 | 33 | 1016.4 |
| 20260510191539 | 80 | 135 | 2.6 | 7.0 | 0.00 | 0.00 | 0.00 | 33 | 1016.4 |
| 20260510191440 | 80 | 158 | 2.6 | 7.0 | 0.00 | 0.00 | 0.00 | 35 | 1016.5 |
| 20260510191339 | 80 | 125 | 2.6 | 6.1 | 0.00 | 0.00 | 0.00 | 33 | 1016.4 |
| 20260510191239 | 80 | 167 | 2.6 | 6.1 | 0.00 | 0.00 | 0.00 | 34 | 1016.5 |
| 20260510191136 | 80 | 166 | 2.6 | 6.1 | 0.00 | 0.00 | 0.00 | 34 | 1016.5 |
| 20260510191036 | 80 | 38 | 2.6 | 6.1 | 0.00 | 0.00 | 0.00 | 33 | 1016.4 |
| 20260510190935 | 80 | 38 | 2.6 | 6.1 | 0.00 | 0.00 | 0.00 | 33 | 1016.5 |
| 20260510190835 | 80 | 5 | 2.6 | 6.1 | 0.00 | 0.00 | 0.00 | 32 | 1016.5 |
| 20260510190732 | 80 | 317 | 2.6 | 6.1 | 0.00 | 0.00 | 0.00 | 32 | 1016.4 |
| 20260510190627 | 80 | 273 | 1.7 | 6.1 | 0.00 | 0.00 | 0.00 | 34 | 1016.5 |
| 20260510190525 | 80 | 275 | 1.7 | 6.1 | 0.00 | 0.00 | 0.00 | 32 | 1016.5 |
| 20260510190427 | 80 | 221 | 1.7 | 6.1 | 0.00 | 0.00 | 0.00 | 32 | 1016.4 |
| 20260510190327 | 80 | 0 | 1.7 | 5.2 | 0.00 | 0.00 | 0.00 | 34 | 1016.5 |
| 20260510190226 | 80 | 187 | 1.7 | 5.2 | 0.00 | 0.00 | 0.00 | 35 | 1016.6 |
| 20260510190119 | 80 | 285 | 0.9 | 5.2 | 0.00 | 0.00 | 0.00 | 37 | 1016.4 |
| 20260510190016 | 80 | 355 | 0.9 | 5.2 | 0.00 | 0.00 | 0.00 | 35 | 1016.5 |
| 20260510185916 | 80 | 317 | 0.9 | 5.2 | 0.00 | 0.00 | 0.00 | 34 | 1016.5 |
| 20260510185816 | 80 | 209 | 0.9 | 5.2 | 0.00 | 0.00 | 0.00 | 33 | 1016.5 |
| 20260510185717 | 80 | 162 | 0.0 | 5.2 | 0.00 | 0.00 | 0.00 | 34 | 1016.5 |
| 20260510185617 | 80 | 161 | 0.0 | 6.1 | 0.00 | 0.00 | 0.00 | 35 | 1016.5 |
| 20260510185513 | 80 | 150 | 0.0 | 6.1 | 0.00 | 0.00 | 0.00 | 33 | 1016.5 |
| 20260510185414 | 80 | 150 | 0.9 | 6.1 | 0.00 | 0.00 | 0.00 | 34 | 1016.5 |
| 20260510185313 | 80 | 86 | 0.9 | 6.1 | 0.00 | 0.00 | 0.00 | 34 | 1016.6 |
| 20260510185211 | 80 | 54 | 0.9 | 6.1 | 0.00 | 0.00 | 0.00 | 35 | 1016.6 |
| 20260510185106 | 80 | 124 | 0.9 | 6.1 | 0.00 | 0.00 | 0.00 | 33 | 1016.6 |
| 20260510185008 | 80 | 190 | 0.9 | 6.1 | 0.00 | 0.00 | 0.00 | 34 | 1016.6 |
| 20260510184905 | 79 | 190 | 0.9 | 6.1 | 0.00 | 0.00 | 0.00 | 35 | 1016.4 |
| 20260510184807 | 79 | 193 | 0.9 | 6.1 | 0.00 | 0.00 | 0.00 | 32 | 1016.6 |
| 20260510184704 | 80 | 147 | 0.9 | 5.2 | 0.00 | 0.00 | 0.00 | 33 | 1016.5 |
| 20260510184557 | 80 | 180 | 0.9 | 6.1 | 0.00 | 0.00 | 0.00 | 33 | 1016.5 |
| 20260510184456 | 80 | 291 | 1.7 | 6.1 | 0.00 | 0.00 | 0.00 | 32 | 1016.5 |
| 20260510184355 | 79 | 296 | 1.7 | 6.1 | 0.00 | 0.00 | 0.00 | 32 | 1016.6 |
| 20260510184255 | 79 | 271 | 1.7 | 6.1 | 0.00 | 0.00 | 0.00 | 35 | 1016.5 |
| 20260510184154 | 79 | 240 | 1.7 | 6.1 | 0.00 | 0.00 | 0.00 | 33 | 1016.4 |
| 20260510184048 | 79 | 201 | 1.7 | 6.1 | 0.00 | 0.00 | 0.00 | 36 | 1016.5 |
| 20260510183948 | 79 | 169 | 1.7 | 6.1 | 0.00 | 0.00 | 0.00 | 35 | 1016.5 |
| 20260510183847 | 79 | 141 | 2.6 | 6.1 | 0.00 | 0.00 | 0.00 | 33 | 1016.5 |
| 20260510183749 | 79 | 141 | 2.6 | 6.1 | 0.00 | 0.00 | 0.00 | 34 | 1016.5 |
| 20260510183649 | 79 | 152 | 1.7 | 6.1 | 0.00 | 0.00 | 0.00 | 31 | 1016.6 |
| 20260510183542 | 80 | 130 | 1.7 | 5.2 | 0.00 | 0.00 | 0.00 | 31 | 1016.6 |
| 20260510183441 | 80 | 193 | 1.7 | 5.2 | 0.00 | 0.00 | 0.00 | 31 | 1016.6 |
| 20260510183343 | 80 | 136 | 1.7 | 4.3 | 0.00 | 0.00 | 0.00 | 32 | 1016.7 |
| 20260510183241 | 79 | 252 | 0.9 | 4.3 | 0.00 | 0.00 | 0.00 | 31 | 1016.7 |
| 20260510183143 | 79 | 242 | 0.9 | 4.3 | 0.00 | 0.00 | 0.00 | 33 | 1016.7 |
| 20260510183035 | 79 | 273 | 0.9 | 4.3 | 0.00 | 0.00 | 0.00 | 34 | 1016.6 |
| 20260510182933 | 79 | 319 | 0.9 | 4.3 | 0.00 | 0.00 | 0.00 | 33 | 1016.6 |
| 20260510182832 | 79 | 280 | 0.0 | 4.3 | 0.00 | 0.00 | 0.00 | 33 | 1016.6 |
| 20260510182733 | 79 | 305 | 0.0 | 4.3 | 0.00 | 0.00 | 0.00 | 34 | 1016.6 |
| 20260510182633 | 79 | 184 | 0.0 | 0.9 | 0.00 | 0.00 | 0.00 | 33 | 1016.6 |
| 20260510182527 | 79 | 175 | 0.0 | 0.0 | 0.00 | 0.00 | 0.00 | 33 | 1016.6 |
| 20260510182427 | 79 | 175 | 0.0 | 0.0 | 0.00 | 0.00 | 0.00 | 34 | 1016.6 |
| 20260510182327 | 79 | 111 | 0.0 | 0.0 | 0.00 | 0.00 | 0.00 | 33 | 1016.7 |
| 20260510182227 | 79 | 302 | 0.0 | 0.0 | 0.00 | 0.00 | 0.00 | 32 | 1016.6 |
| 20260510182127 | 79 | 213 | 0.0 | 0.0 | 0.00 | 0.00 | 0.00 | 35 | 1016.7 |
| 20260510182027 | 79 | 140 | 0.0 | 0.0 | 0.00 | 0.00 | 0.00 | 34 | 1016.7 |
| 20260510181925 | 79 | 164 | 0.0 | 0.0 | 0.00 | 0.00 | 0.00 | 35 | 1016.7 |
| 20260510181824 | 78 | 250 | 0.0 | 0.0 | 0.00 | 0.00 | 0.00 | 36 | 1016.6 |
| 20260510181723 | 78 | 350 | 0.0 | 0.0 | 0.00 | 0.00 | 0.00 | 35 | 1016.5 |
| 20260510181620 | 78 | 336 | 0.0 | 0.0 | 0.00 | 0.00 | 0.00 | 34 | 1016.5 |
| 20260510181514 | 78 | 279 | 0.0 | 0.0 | 0.00 | 0.00 | 0.00 | 34 | 1016.7 |
| 20260510181413 | 78 | 180 | 0.0 | 0.0 | 0.00 | 0.00 | 0.00 | 33 | 1016.6 |
| 20260510181313 | 78 | 179 | 0.0 | 0.0 | 0.00 | 0.00 | 0.00 | 32 | 1016.7 |
| 20260510181213 | 78 | 179 | 0.0 | 0.0 | 0.00 | 0.00 | 0.00 | 36 | 1016.7 |
| 20260510181111 | 78 | 10 | 0.0 | 0.0 | 0.00 | 0.00 | 0.00 | 36 | 1016.7 |
| 20260510181005 | 78 | 16 | 0.0 | 1.7 | 0.00 | 0.00 | 0.00 | 36 | 1016.7 |
| 20260510180905 | 78 | 313 | 0.0 | 2.6 | 0.00 | 0.00 | 0.00 | 35 | 1016.6 |
| 20260510180805 | 78 | 348 | 0.9 | 6.1 | 0.00 | 0.00 | 0.00 | 35 | 1016.6 |
| 20260510180704 | 78 | 344 | 1.7 | 7.8 | 0.00 | 0.00 | 0.00 | 35 | 1016.6 |
| 20260510180604 | 78 | 326 | 1.7 | 7.8 | 0.00 | 0.00 | 0.00 | 35 | 1016.7 |
| 20260510180458 | 78 | 284 | 1.7 | 7.8 | 0.00 | 0.00 | 0.00 | 36 | 1016.7 |
| 20260510180357 | 78 | 47 | 1.7 | 7.8 | 0.00 | 0.00 | 0.00 | 35 | 1016.7 |
| 20260510180259 | 78 | 302 | 1.7 | 7.8 | 0.00 | 0.00 | 0.00 | 35 | 1016.7 |
| 20260510180157 | 78 | 342 | 2.6 | 7.8 | 0.00 | 0.00 | 0.00 | 36 | 1016.7 |
| 20260510180059 | 78 | 242 | 2.6 | 7.8 | 0.00 | 0.00 | 0.00 | 35 | 1016.7 |
| 20260510175947 | 78 | 91 | 2.6 | 7.8 | 0.00 | 0.00 | 0.00 | 37 | 1016.7 |
| 20260510175848 | 78 | 171 | 2.6 | 7.8 | 0.00 | 0.00 | 0.00 | 35 | 1016.6 |
| 20260510175748 | 78 | 135 | 2.6 | 6.1 | 0.00 | 0.00 | 0.00 | 34 | 1016.6 |
| 20260510175649 | 78 | 153 | 1.7 | 6.1 | 0.00 | 0.00 | 0.00 | 37 | 1016.7 |
| 20260510175549 | 78 | 147 | 1.7 | 5.2 | 0.00 | 0.00 | 0.00 | 36 | 1016.7 |
| 20260510175442 | 78 | 186 | 1.7 | 5.2 | 0.00 | 0.00 | 0.00 | 35 | 1016.7 |
| 20260510175341 | 78 | 191 | 1.7 | 5.2 | 0.00 | 0.00 | 0.00 | 32 | 1016.9 |
| 20260510175243 | 78 | 277 | 1.7 | 5.2 | 0.00 | 0.00 | 0.00 | 33 | 1016.7 |
| 20260510175143 | 78 | 336 | 1.7 | 5.2 | 0.00 | 0.00 | 0.00 | 33 | 1016.9 |
| 20260510175043 | 78 | 261 | 1.7 | 5.2 | 0.00 | 0.00 | 0.00 | 34 | 1016.9 |
| 20260510174937 | 78 | 319 | 1.7 | 3.5 | 0.00 | 0.00 | 0.00 | 35 | 1016.9 |
| 20260510174836 | 78 | 355 | 1.7 | 3.5 | 0.00 | 0.00 | 0.00 | 35 | 1016.9 |
| 20260510174737 | 78 | 152 | 1.7 | 3.5 | 0.00 | 0.00 | 0.00 | 35 | 1016.9 |
| 20260510174635 | 78 | 184 | 1.7 | 3.5 | 0.00 | 0.00 | 0.00 | 34 | 1016.9 |
| 20260510174536 | 78 | 192 | 1.7 | 3.5 | 0.00 | 0.00 | 0.00 | 34 | 1017.0 |
| 20260510174431 | 78 | 150 | 1.7 | 3.5 | 0.00 | 0.00 | 0.00 | 35 | 1017.0 |
| 20260510174330 | 78 | 157 | 1.7 | 5.2 | 0.00 | 0.00 | 0.00 | 37 | 1017.0 |
| 20260510174230 | 78 | 238 | 1.7 | 5.2 | 0.00 | 0.00 | 0.00 | 36 | 1016.9 |
| 20260510174129 | 78 | 27 | 1.7 | 5.2 | 0.00 | 0.00 | 0.00 | 37 | 1017.0 |
| 20260510174027 | 78 | 250 | 1.7 | 6.1 | 0.00 | 0.00 | 0.00 | 37 | 1017.0 |
| 20260510173922 | 78 | 255 | 1.7 | 6.1 | 0.00 | 0.00 | 0.00 | 38 | 1017.0 |
| 20260510173822 | 78 | 22 | 1.7 | 6.1 | 0.00 | 0.00 | 0.00 | 36 | 1017.0 |
| 20260510173722 | 78 | 300 | 1.7 | 6.1 | 0.00 | 0.00 | 0.00 | 35 | 1017.0 |
| 20260510173622 | 78 | 355 | 1.7 | 6.1 | 0.00 | 0.00 | 0.00 | 35 | 1017.0 |
| 20260510173521 | 78 | 335 | 1.7 | 6.1 | 0.00 | 0.00 | 0.00 | 37 | 1017.0 |
| 20260510173415 | 78 | 315 | 1.7 | 6.1 | 0.00 | 0.00 | 0.00 | 36 | 1017.1 |
| 20260510173313 | 78 | 312 | 1.7 | 6.1 | 0.00 | 0.00 | 0.00 | 35 | 1017.0 |
| 20260510173215 | 78 | 296 | 1.7 | 6.1 | 0.00 | 0.00 | 0.00 | 34 | 1017.1 |
| 20260510173115 | 78 | 310 | 1.7 | 6.1 | 0.00 | 0.00 | 0.00 | 36 | 1017.0 |
| 20260510173014 | 78 | 117 | 1.7 | 6.1 | 0.00 | 0.00 | 0.00 | 36 | 1017.0 |
| 20260510172905 | 78 | 123 | 1.7 | 6.1 | 0.00 | 0.00 | 0.00 | 37 | 1017.0 |
| 20260510172804 | 77 | 121 | 1.7 | 6.1 | 0.00 | 0.00 | 0.00 | 36 | 1017.1 |
| 20260510172705 | 77 | 119 | 1.7 | 6.1 | 0.00 | 0.00 | 0.00 | 34 | 1017.2 |
| 20260510172604 | 77 | 308 | 1.7 | 6.1 | 0.00 | 0.00 | 0.00 | 33 | 1017.2 |
| 20260510172506 | 77 | 277 | 1.7 | 6.1 | 0.00 | 0.00 | 0.00 | 37 | 1017.2 |
| 20260510172358 | 77 | 160 | 1.7 | 6.1 | 0.00 | 0.00 | 0.00 | 36 | 1017.2 |
| 20260510172258 | 77 | 187 | 1.7 | 6.1 | 0.00 | 0.00 | 0.00 | 35 | 1017.2 |
| 20260510172159 | 77 | 149 | 1.7 | 6.1 | 0.00 | 0.00 | 0.00 | 35 | 1017.3 |
| 20260510172058 | 76 | 121 | 1.7 | 6.1 | 0.00 | 0.00 | 0.00 | 34 | 1017.3 |
| 20260510171959 | 76 | 169 | 2.6 | 6.1 | 0.00 | 0.00 | 0.00 | 34 | 1017.3 |
| 20260510171856 | 76 | 168 | 2.6 | 6.1 | 0.00 | 0.00 | 0.00 | 35 | 1017.3 |
| 20260510171756 | 76 | 170 | 2.6 | 7.0 | 0.00 | 0.00 | 0.00 | 34 | 1017.4 |
| 20260510171656 | 76 | 286 | 2.6 | 7.0 | 0.00 | 0.00 | 0.00 | 32 | 1017.3 |
| 20260510171554 | 76 | 273 | 3.5 | 7.0 | 0.00 | 0.00 | 0.00 | 34 | 1017.4 |
| 20260510171453 | 76 | 273 | 2.6 | 7.0 | 0.00 | 0.00 | 0.00 | 32 | 1017.3 |
| 20260510171349 | 76 | 255 | 3.5 | 7.0 | 0.00 | 0.00 | 0.00 | 32 | 1017.4 |
| 20260510171248 | 76 | 286 | 3.5 | 7.0 | 0.00 | 0.00 | 0.00 | 33 | 1017.4 |
| 20260510171147 | 76 | 338 | 3.5 | 7.0 | 0.00 | 0.00 | 0.00 | 34 | 1017.4 |
| 20260510171048 | 76 | 5 | 3.5 | 7.0 | 0.00 | 0.00 | 0.00 | 34 | 1017.4 |
| 20260510170949 | 76 | 300 | 2.6 | 7.0 | 0.00 | 0.00 | 0.00 | 34 | 1017.4 |
| 20260510170847 | 76 | 355 | 3.5 | 7.0 | 0.00 | 0.00 | 0.00 | 32 | 1017.5 |
| 20260510170748 | 76 | 284 | 2.6 | 7.8 | 0.00 | 0.00 | 0.00 | 35 | 1017.6 |
| 20260510170646 | 76 | 24 | 2.6 | 7.8 | 0.00 | 0.00 | 0.00 | 35 | 1017.4 |
| 20260510170545 | 76 | 291 | 2.6 | 7.8 | 0.00 | 0.00 | 0.00 | 34 | 1017.4 |
| 20260510170445 | 76 | 267 | 2.6 | 7.8 | 0.00 | 0.00 | 0.00 | 32 | 1017.4 |
| 20260510170344 | 76 | 290 | 2.6 | 7.8 | 0.00 | 0.00 | 0.00 | 33 | 1017.3 |
| 20260510170244 | 76 | 285 | 2.6 | 7.8 | 0.00 | 0.00 | 0.00 | 34 | 1017.4 |
| 20260510170143 | 76 | 246 | 2.6 | 7.8 | 0.00 | 0.00 | 0.00 | 33 | 1017.4 |
| 20260510170044 | 76 | 240 | 2.6 | 7.8 | 0.00 | 0.00 | 0.00 | 35 | 1017.4 |
| 20260510165943 | 76 | 138 | 2.6 | 7.8 | 0.00 | 0.00 | 0.00 | 34 | 1017.4 |
| 20260510165844 | 76 | 115 | 1.7 | 7.8 | 0.00 | 0.00 | 0.00 | 34 | 1017.4 |
| 20260510165745 | 76 | 223 | 1.7 | 6.1 | 0.00 | 0.00 | 0.00 | 33 | 1017.4 |
| 20260510165639 | 76 | 226 | 1.7 | 6.1 | 0.00 | 0.00 | 0.00 | 32 | 1017.5 |
| 20260510165537 | 76 | 269 | 1.7 | 6.1 | 0.00 | 0.00 | 0.00 | 33 | 1017.4 |
| 20260510165439 | 76 | 282 | 1.7 | 5.2 | 0.00 | 0.00 | 0.00 | 33 | 1017.4 |
| 20260510165338 | 76 | 151 | 1.7 | 5.2 | 0.00 | 0.00 | 0.00 | 36 | 1017.5 |
| 20260510165238 | 76 | 97 | 1.7 | 5.2 | 0.00 | 0.00 | 0.00 | 34 | 1017.4 |
| 20260510165135 | 76 | 90 | 2.6 | 7.0 | 0.00 | 0.00 | 0.00 | 35 | 1017.5 |
| 20260510165032 | 76 | 87 | 2.6 | 7.8 | 0.00 | 0.00 | 0.00 | 33 | 1017.4 |
| 20260510164932 | 76 | 86 | 2.6 | 7.8 | 0.00 | 0.00 | 0.00 | 34 | 1017.4 |
| 20260510164832 | 76 | 338 | 2.6 | 7.8 | 0.00 | 0.00 | 0.00 | 31 | 1017.4 |
| 20260510164733 | 76 | 194 | 2.6 | 7.8 | 0.00 | 0.00 | 0.00 | 29 | 1017.5 |
| 20260510164625 | 76 | 304 | 2.6 | 7.8 | 0.00 | 0.00 | 0.00 | 27 | 1017.4 |
| 20260510164527 | 76 | 317 | 2.6 | 7.8 | 0.00 | 0.00 | 0.00 | 27 | 1017.4 |
| 20260510164427 | 76 | 295 | 2.6 | 7.8 | 0.00 | 0.00 | 0.00 | 28 | 1017.4 |
| 20260510164325 | 76 | 321 | 2.6 | 7.8 | 0.00 | 0.00 | 0.00 | 30 | 1017.4 |
| 20260510164223 | 76 | 324 | 2.6 | 7.8 | 0.00 | 0.00 | 0.00 | 29 | 1017.5 |
| 20260510164123 | 76 | 238 | 2.6 | 6.1 | 0.00 | 0.00 | 0.00 | 31 | 1017.4 |
| 20260510164024 | 76 | 332 | 2.6 | 5.2 | 0.00 | 0.00 | 0.00 | 34 | 1017.4 |
| 20260510163923 | 76 | 324 | 1.7 | 4.3 | 0.00 | 0.00 | 0.00 | 36 | 1017.3 |
| 20260510163823 | 76 | 84 | 2.6 | 4.3 | 0.00 | 0.00 | 0.00 | 36 | 1017.4 |
| 20260510163721 | 76 | 53 | 2.6 | 4.3 | 0.00 | 0.00 | 0.00 | 38 | 1017.4 |
| 20260510163623 | 76 | 341 | 2.6 | 4.3 | 0.00 | 0.00 | 0.00 | 38 | 1017.3 |
| 20260510163419 | 76 | 344 | 2.6 | 6.1 | 0.00 | 0.00 | 0.00 | 38 | 1017.4 |
| 20260510163318 | 76 | 311 | 2.6 | 6.1 | 0.00 | 0.00 | 0.00 | 39 | 1017.4 |
| 20260510163217 | 76 | 340 | 2.6 | 6.1 | 0.00 | 0.00 | 0.00 | 37 | 1017.4 |
| 20260510163117 | 76 | 342 | 1.7 | 6.1 | 0.00 | 0.00 | 0.00 | 37 | 1017.4 |
| 20260510163016 | 76 | 290 | 1.7 | 6.1 | 0.00 | 0.00 | 0.00 | 37 | 1017.4 |
| 20260510162917 | 76 | 281 | 1.7 | 6.1 | 0.00 | 0.00 | 0.00 | 36 | 1017.3 |
| 20260510162814 | 76 | 297 | 1.7 | 6.1 | 0.00 | 0.00 | 0.00 | 36 | 1017.5 |
| 20260510162713 | 76 | 328 | 1.7 | 6.1 | 0.00 | 0.00 | 0.00 | 38 | 1017.4 |
| 20260510162615 | 76 | 190 | 1.7 | 6.1 | 0.00 | 0.00 | 0.00 | 41 | 1017.4 |
| 20260510162520 | 76 | 175 | 1.7 | 6.1 | 0.00 | 0.00 | 0.00 | 41 | 1017.5 |
| 20260510162407 | 75 | 184 | 1.7 | 5.2 | 0.00 | 0.00 | 0.00 | 41 | 1017.5 |
| 20260510162308 | 75 | 188 | 1.7 | 5.2 | 0.00 | 0.00 | 0.00 | 42 | 1017.5 |
| 20260510162209 | 75 | 195 | 1.7 | 5.2 | 0.00 | 0.00 | 0.00 | 41 | 1017.5 |
| 20260510162109 | 75 | 202 | 1.7 | 5.2 | 0.00 | 0.00 | 0.00 | 40 | 1017.7 |
| 20260510162008 | 74 | 310 | 1.7 | 5.2 | 0.00 | 0.00 | 0.00 | 43 | 1017.6 |
| 20260510161908 | 74 | 182 | 1.7 | 3.5 | 0.00 | 0.00 | 0.00 | 43 | 1017.6 |
| 20260510161806 | 74 | 290 | 1.7 | 7.0 | 0.00 | 0.00 | 0.00 | 43 | 1017.6 |
| 20260510161706 | 74 | 287 | 1.7 | 7.0 | 0.00 | 0.00 | 0.00 | 42 | 1017.6 |
| 20260510161606 | 74 | 278 | 1.7 | 7.0 | 0.00 | 0.00 | 0.00 | 42 | 1017.6 |
| 20260510161507 | 74 | 124 | 2.6 | 7.0 | 0.00 | 0.00 | 0.00 | 44 | 1017.6 |
| 20260510161405 | 74 | 93 | 2.6 | 7.0 | 0.00 | 0.00 | 0.00 | 44 | 1017.7 |
| 20260510161305 | 74 | 328 | 2.6 | 7.0 | 0.00 | 0.00 | 0.00 | 43 | 1017.7 |
| 20260510161206 | 74 | 329 | 2.6 | 7.0 | 0.00 | 0.00 | 0.00 | 43 | 1017.7 |
| 20260510161106 | 74 | 277 | 2.6 | 7.0 | 0.00 | 0.00 | 0.00 | 43 | 1017.7 |
| 20260510161005 | 74 | 326 | 2.6 | 7.0 | 0.00 | 0.00 | 0.00 | 42 | 1017.7 |
| 20260510160906 | 74 | 318 | 2.6 | 7.0 | 0.00 | 0.00 | 0.00 | 41 | 1017.7 |
| 20260510160807 | 74 | 328 | 3.5 | 7.0 | 0.00 | 0.00 | 0.00 | 41 | 1017.7 |
| 20260510160704 | 74 | 322 | 3.5 | 7.0 | 0.00 | 0.00 | 0.00 | 41 | 1017.7 |
| 20260510160604 | 74 | 308 | 3.5 | 7.0 | 0.00 | 0.00 | 0.00 | 41 | 1017.7 |
| 20260510160503 | 74 | 328 | 2.6 | 6.1 | 0.00 | 0.00 | 0.00 | 42 | 1017.7 |
| 20260510160405 | 74 | 340 | 2.6 | 7.0 | 0.00 | 0.00 | 0.00 | 44 | 1017.7 |
| 20260510160305 | 74 | 272 | 2.6 | 7.0 | 0.00 | 0.00 | 0.00 | 46 | 1017.7 |
| 20260510160203 | 74 | 312 | 2.6 | 7.0 | 0.00 | 0.00 | 0.00 | 44 | 1017.7 |
| 20260510160104 | 74 | 355 | 2.6 | 7.0 | 0.00 | 0.00 | 0.00 | 45 | 1017.7 |
| 20260510160005 | 74 | 307 | 2.6 | 7.0 | 0.00 | 0.00 | 0.00 | 46 | 1017.8 |
| 20260510155904 | 74 | 300 | 2.6 | 7.0 | 0.00 | 0.00 | 0.00 | 46 | 1017.7 |
| 20260510155805 | 74 | 331 | 2.6 | 7.0 | 0.00 | 0.00 | 0.00 | 43 | 1017.7 |
| 20260510155704 | 74 | 294 | 2.6 | 7.0 | 0.00 | 0.00 | 0.00 | 46 | 1017.7 |
| 20260510155604 | 74 | 328 | 1.7 | 7.0 | 0.00 | 0.00 | 0.00 | 48 | 1017.7 |
| 20260510155500 | 74 | 325 | 1.7 | 7.0 | 0.00 | 0.00 | 0.00 | 46 | 1017.7 |
| 20260510155359 | 74 | 282 | 1.7 | 4.3 | 0.00 | 0.00 | 0.00 | 45 | 1017.7 |
| 20260510155300 | 73 | 348 | 1.7 | 4.3 | 0.00 | 0.00 | 0.00 | 48 | 1017.7 |
| 20260510155201 | 73 | 251 | 1.7 | 4.3 | 0.00 | 0.00 | 0.00 | 48 | 1017.6 |
| 20260510155059 | 73 | 284 | 2.6 | 4.3 | 0.00 | 0.00 | 0.00 | 50 | 1017.6 |
| 20260510154952 | 73 | 350 | 1.7 | 5.2 | 0.00 | 0.00 | 0.00 | 50 | 1017.6 |
| 20260510154853 | 73 | 334 | 2.6 | 5.2 | 0.00 | 0.00 | 0.00 | 51 | 1017.6 |
| 20260510154752 | 73 | 321 | 2.6 | 5.2 | 0.00 | 0.00 | 0.00 | 48 | 1017.7 |
| 20260510154652 | 73 | 286 | 2.6 | 5.2 | 0.00 | 0.00 | 0.00 | 48 | 1017.6 |
| 20260510154552 | 72 | 288 | 2.6 | 5.2 | 0.00 | 0.00 | 0.00 | 51 | 1017.7 |
| 20260510154447 | 72 | 288 | 2.6 | 5.2 | 0.00 | 0.00 | 0.00 | 49 | 1017.7 |
| 20260510154349 | 72 | 5 | 2.6 | 5.2 | 0.00 | 0.00 | 0.00 | 50 | 1017.7 |
| 20260510154247 | 72 | 13 | 2.6 | 5.2 | 0.00 | 0.00 | 0.00 | 50 | 1017.7 |
| 20260510154149 | 72 | 12 | 2.6 | 5.2 | 0.00 | 0.00 | 0.00 | 50 | 1017.7 |
| 20260510154047 | 72 | 344 | 2.6 | 6.1 | 0.00 | 0.00 | 0.00 | 49 | 1017.8 |
| 20260510153947 | 72 | 329 | 3.5 | 7.0 | 0.00 | 0.00 | 0.00 | 48 | 1017.7 |
| 20260510153849 | 72 | 333 | 3.5 | 7.0 | 0.00 | 0.00 | 0.00 | 48 | 1017.7 |
| 20260510153747 | 72 | 322 | 3.5 | 7.0 | 0.00 | 0.00 | 0.00 | 48 | 1017.8 |
| 20260510153648 | 72 | 325 | 3.5 | 7.0 | 0.00 | 0.00 | 0.00 | 50 | 1017.7 |
| 20260510153549 | 71 | 25 | 3.5 | 7.0 | 0.00 | 0.00 | 0.00 | 49 | 1017.7 |
| 20260510153448 | 71 | 21 | 3.5 | 7.0 | 0.00 | 0.00 | 0.00 | 49 | 1017.6 |
| 20260510153348 | 71 | 355 | 3.5 | 7.8 | 0.00 | 0.00 | 0.00 | 49 | 1017.7 |
| 20260510153248 | 71 | 345 | 3.5 | 7.8 | 0.00 | 0.00 | 0.00 | 49 | 1017.7 |
| 20260510153148 | 71 | 5 | 3.5 | 7.8 | 0.00 | 0.00 | 0.00 | 51 | 1017.7 |
| 20260510153049 | 71 | 329 | 3.5 | 7.8 | 0.00 | 0.00 | 0.00 | 50 | 1017.7 |
| 20260510152948 | 71 | 331 | 3.5 | 7.8 | 0.00 | 0.00 | 0.00 | 49 | 1017.7 |
| 20260510152847 | 71 | 342 | 3.5 | 7.8 | 0.00 | 0.00 | 0.00 | 49 | 1017.8 |
| 20260510152748 | 71 | 9 | 3.5 | 7.8 | 0.00 | 0.00 | 0.00 | 50 | 1017.8 |
| 20260510152648 | 71 | 345 | 3.5 | 7.8 | 0.00 | 0.00 | 0.00 | 50 | 1017.8 |
| 20260510152548 | 71 | 346 | 4.3 | 7.8 | 0.00 | 0.00 | 0.00 | 50 | 1017.8 |
| 20260510152447 | 71 | 5 | 4.3 | 8.7 | 0.00 | 0.00 | 0.00 | 52 | 1017.8 |
| 20260510152348 | 71 | 5 | 4.3 | 8.7 | 0.00 | 0.00 | 0.00 | 51 | 1017.7 |
| 20260510152247 | 71 | 13 | 4.3 | 8.7 | 0.00 | 0.00 | 0.00 | 51 | 1017.8 |
| 20260510152148 | 71 | 38 | 5.2 | 8.7 | 0.00 | 0.00 | 0.00 | 52 | 1017.8 |
| 20260510152047 | 70 | 327 | 5.2 | 8.7 | 0.00 | 0.00 | 0.00 | 49 | 1017.7 |
| 20260510151949 | 71 | 18 | 5.2 | 8.7 | 0.00 | 0.00 | 0.00 | 52 | 1017.7 |
| 20260510151845 | 70 | 333 | 5.2 | 8.7 | 0.00 | 0.00 | 0.00 | 49 | 1017.8 |
| 20260510151746 | 71 | 325 | 5.2 | 8.7 | 0.00 | 0.00 | 0.00 | 50 | 1017.7 |
| 20260510151645 | 71 | 340 | 5.2 | 8.7 | 0.00 | 0.00 | 0.00 | 50 | 1017.8 |
| 20260510151545 | 71 | 336 | 5.2 | 8.7 | 0.00 | 0.00 | 0.00 | 51 | 1017.8 |
| 20260510151447 | 71 | 338 | 5.2 | 8.7 | 0.00 | 0.00 | 0.00 | 51 | 1017.8 |
| 20260510151346 | 71 | 340 | 5.2 | 8.7 | 0.00 | 0.00 | 0.00 | 49 | 1017.8 |
| 20260510151247 | 71 | 328 | 5.2 | 8.7 | 0.00 | 0.00 | 0.00 | 50 | 1017.7 |
| 20260510151137 | 71 | 0 | 5.2 | 8.7 | 0.00 | 0.00 | 0.00 | 49 | 1017.7 |
| 20260510151037 | 71 | 310 | 4.3 | 8.7 | 0.00 | 0.00 | 0.00 | 50 | 1017.7 |
| 20260510150939 | 71 | 319 | 4.3 | 8.7 | 0.00 | 0.00 | 0.00 | 50 | 1017.7 |
| 20260510150836 | 71 | 337 | 4.3 | 8.7 | 0.00 | 0.00 | 0.00 | 49 | 1017.8 |
| 20260510150738 | 71 | 345 | 4.3 | 8.7 | 0.00 | 0.00 | 0.00 | 48 | 1017.8 |
| 20260510150637 | 71 | 329 | 4.3 | 8.7 | 0.00 | 0.00 | 0.00 | 50 | 1017.8 |
| 20260510150537 | 71 | 316 | 3.5 | 7.8 | 0.00 | 0.00 | 0.00 | 52 | 1017.8 |
| 20260510150436 | 71 | 332 | 3.5 | 7.8 | 0.00 | 0.00 | 0.00 | 52 | 1017.8 |
| 20260510150338 | 71 | 333 | 3.5 | 7.8 | 0.00 | 0.00 | 0.00 | 51 | 1017.7 |
| 20260510150238 | 71 | 336 | 3.5 | 7.8 | 0.00 | 0.00 | 0.00 | 52 | 1017.8 |
| 20260510150137 | 71 | 347 | 3.5 | 7.8 | 0.00 | 0.00 | 0.00 | 50 | 1017.8 |
| 20260510150037 | 71 | 327 | 3.5 | 7.8 | 0.00 | 0.00 | 0.00 | 51 | 1017.8 |
| 20260510145937 | 71 | 338 | 3.5 | 7.8 | 0.00 | 0.00 | 0.00 | 52 | 1017.8 |
| 20260510145838 | 71 | 27 | 3.5 | 7.8 | 0.00 | 0.00 | 0.00 | 50 | 1017.8 |
| 20260510145738 | 70 | 355 | 3.5 | 7.8 | 0.00 | 0.00 | 0.00 | 51 | 1017.8 |
| 20260510145637 | 70 | 0 | 3.5 | 7.8 | 0.00 | 0.00 | 0.00 | 50 | 1017.7 |
| 20260510145537 | 70 | 305 | 3.5 | 7.8 | 0.00 | 0.00 | 0.00 | 51 | 1017.8 |
| 20260510145437 | 70 | 307 | 3.5 | 7.8 | 0.00 | 0.00 | 0.00 | 52 | 1017.7 |
| 20260510145337 | 70 | 282 | 4.3 | 7.8 | 0.00 | 0.00 | 0.00 | 53 | 1017.7 |
| 20260510145238 | 70 | 344 | 4.3 | 7.8 | 0.00 | 0.00 | 0.00 | 52 | 1017.7 |
| 20260510145136 | 70 | 311 | 4.3 | 7.8 | 0.00 | 0.00 | 0.00 | 51 | 1017.7 |
| 20260510145038 | 70 | 292 | 4.3 | 8.7 | 0.00 | 0.00 | 0.00 | 50 | 1017.8 |
| 20260510144936 | 70 | 355 | 4.3 | 8.7 | 0.00 | 0.00 | 0.00 | 51 | 1017.8 |
| 20260510144837 | 70 | 0 | 4.3 | 8.7 | 0.00 | 0.00 | 0.00 | 51 | 1017.7 |
| 20260510144738 | 70 | 24 | 4.3 | 8.7 | 0.00 | 0.00 | 0.00 | 53 | 1017.7 |
| 20260510144538 | 70 | 316 | 5.2 | 8.7 | 0.00 | 0.00 | 0.00 | 50 | 1017.7 |
| 20260510144436 | 69 | 331 | 4.3 | 8.7 | 0.00 | 0.00 | 0.00 | 53 | 1017.9 |
| 20260510144337 | 69 | 336 | 4.3 | 8.7 | 0.00 | 0.00 | 0.00 | 52 | 1017.8 |
| 20260510144238 | 69 | 344 | 4.3 | 8.7 | 0.00 | 0.00 | 0.00 | 52 | 1017.7 |
| 20260510144137 | 69 | 316 | 4.3 | 8.7 | 0.00 | 0.00 | 0.00 | 49 | 1017.6 |
| 20260510144037 | 69 | 323 | 4.3 | 7.8 | 0.00 | 0.00 | 0.00 | 51 | 1017.7 |
| 20260510143938 | 69 | 330 | 4.3 | 7.8 | 0.00 | 0.00 | 0.00 | 50 | 1017.6 |
| 20260510143833 | 69 | 301 | 4.3 | 7.8 | 0.00 | 0.00 | 0.00 | 51 | 1017.8 |
| 20260510143734 | 69 | 347 | 4.3 | 8.7 | 0.00 | 0.00 | 0.00 | 50 | 1017.7 |
| 20260510143633 | 69 | 277 | 3.5 | 8.7 | 0.00 | 0.00 | 0.00 | 51 | 1017.7 |
| 20260510143533 | 69 | 0 | 3.5 | 8.7 | 0.00 | 0.00 | 0.00 | 51 | 1017.7 |
| 20260510143433 | 69 | 348 | 4.3 | 8.7 | 0.00 | 0.00 | 0.00 | 51 | 1017.7 |
| 20260510143332 | 69 | 11 | 4.3 | 8.7 | 0.00 | 0.00 | 0.00 | 51 | 1017.7 |
| 20260510143234 | 69 | 0 | 4.3 | 8.7 | 0.00 | 0.00 | 0.00 | 51 | 1017.7 |
| 20260510143134 | 69 | 333 | 4.3 | 8.7 | 0.00 | 0.00 | 0.00 | 51 | 1017.7 |
| 20260510143033 | 69 | 5 | 4.3 | 9.6 | 0.00 | 0.00 | 0.00 | 50 | 1017.7 |
| 20260510142933 | 69 | 292 | 4.3 | 9.6 | 0.00 | 0.00 | 0.00 | 51 | 1017.7 |
| 20260510142834 | 69 | 325 | 4.3 | 9.6 | 0.00 | 0.00 | 0.00 | 50 | 1017.5 |
| 20260510142734 | 69 | 321 | 4.3 | 9.6 | 0.00 | 0.00 | 0.00 | 49 | 1017.7 |
| 20260510142633 | 69 | 308 | 4.3 | 9.6 | 0.00 | 0.00 | 0.00 | 51 | 1017.7 |
| 20260510142534 | 69 | 311 | 4.3 | 9.6 | 0.00 | 0.00 | 0.00 | 49 | 1017.7 |
| 20260510142435 | 69 | 263 | 4.3 | 9.6 | 0.00 | 0.00 | 0.00 | 53 | 1017.7 |
| 20260510142333 | 69 | 345 | 4.3 | 9.6 | 0.00 | 0.00 | 0.00 | 52 | 1017.7 |
| 20260510142233 | 69 | 327 | 4.3 | 9.6 | 0.00 | 0.00 | 0.00 | 50 | 1017.7 |
| 20260510142133 | 69 | 330 | 3.5 | 9.6 | 0.00 | 0.00 | 0.00 | 52 | 1017.6 |
| 20260510142032 | 69 | 355 | 3.5 | 7.0 | 0.00 | 0.00 | 0.00 | 51 | 1017.6 |
| 20260510141933 | 69 | 301 | 3.5 | 7.0 | 0.00 | 0.00 | 0.00 | 50 | 1017.6 |
| 20260510141833 | 69 | 0 | 3.5 | 7.0 | 0.00 | 0.00 | 0.00 | 51 | 1017.6 |
| 20260510141734 | 69 | 355 | 3.5 | 7.0 | 0.00 | 0.00 | 0.00 | 51 | 1017.6 |
| 20260510141633 | 69 | 331 | 3.5 | 7.0 | 0.00 | 0.00 | 0.00 | 50 | 1017.6 |
| 20260510141534 | 69 | 310 | 2.6 | 7.0 | 0.00 | 0.00 | 0.00 | 52 | 1017.6 |
| 20260510141433 | 69 | 318 | 2.6 | 7.0 | 0.00 | 0.00 | 0.00 | 50 | 1017.7 |
| 20260510141334 | 69 | 300 | 2.6 | 7.0 | 0.00 | 0.00 | 0.00 | 51 | 1017.6 |
| 20260510141233 | 69 | 325 | 2.6 | 7.0 | 0.00 | 0.00 | 0.00 | 52 | 1017.7 |
| 20260510141132 | 69 | 319 | 2.6 | 5.2 | 0.00 | 0.00 | 0.00 | 51 | 1017.7 |
| 20260510141032 | 69 | 313 | 2.6 | 5.2 | 0.00 | 0.00 | 0.00 | 50 | 1017.6 |
| 20260510140934 | 68 | 318 | 2.6 | 5.2 | 0.00 | 0.00 | 0.00 | 53 | 1017.7 |
| 20260510140834 | 68 | 0 | 2.6 | 5.2 | 0.00 | 0.00 | 0.00 | 53 | 1017.6 |
| 20260510140733 | 68 | 338 | 2.6 | 5.2 | 0.00 | 0.00 | 0.00 | 52 | 1017.7 |
| 20260510140634 | 68 | 314 | 2.6 | 5.2 | 0.00 | 0.00 | 0.00 | 52 | 1017.7 |
| 20260510140529 | 68 | 336 | 3.5 | 6.1 | 0.00 | 0.00 | 0.00 | 52 | 1017.6 |
| 20260510140430 | 68 | 346 | 3.5 | 6.1 | 0.00 | 0.00 | 0.00 | 51 | 1017.6 |
| 20260510140330 | 68 | 347 | 3.5 | 6.1 | 0.00 | 0.00 | 0.00 | 52 | 1017.6 |
| 20260510140230 | 68 | 340 | 3.5 | 6.1 | 0.00 | 0.00 | 0.00 | 53 | 1017.6 |
| 20260510140128 | 68 | 340 | 3.5 | 6.1 | 0.00 | 0.00 | 0.00 | 53 | 1017.7 |
| 20260510140029 | 68 | 5 | 3.5 | 6.1 | 0.00 | 0.00 | 0.00 | 56 | 1017.7 |
| 20260510135928 | 68 | 346 | 3.5 | 6.1 | 0.00 | 0.00 | 0.00 | 52 | 1017.7 |
| 20260510135829 | 67 | 0 | 3.5 | 6.1 | 0.00 | 0.00 | 0.00 | 52 | 1017.6 |
| 20260510135730 | 67 | 322 | 3.5 | 6.1 | 0.00 | 0.00 | 0.00 | 54 | 1017.7 |
| 20260510135629 | 67 | 330 | 3.5 | 7.0 | 0.00 | 0.00 | 0.00 | 51 | 1017.7 |
| 20260510135531 | 67 | 300 | 3.5 | 7.0 | 0.00 | 0.00 | 0.00 | 53 | 1017.7 |
| 20260510135429 | 67 | 328 | 3.5 | 7.0 | 0.00 | 0.00 | 0.00 | 53 | 1017.7 |
| 20260510135328 | 67 | 285 | 3.5 | 7.0 | 0.00 | 0.00 | 0.00 | 52 | 1017.7 |
| 20260510135230 | 67 | 10 | 3.5 | 7.0 | 0.00 | 0.00 | 0.00 | 54 | 1017.7 |
| 20260510135130 | 67 | 355 | 3.5 | 7.0 | 0.00 | 0.00 | 0.00 | 55 | 1017.7 |
| 20260510135030 | 67 | 5 | 3.5 | 7.0 | 0.00 | 0.00 | 0.00 | 54 | 1017.7 |
| 20260510134928 | 67 | 337 | 3.5 | 7.0 | 0.00 | 0.00 | 0.00 | 53 | 1017.7 |
| 20260510134829 | 67 | 316 | 3.5 | 7.0 | 0.00 | 0.00 | 0.00 | 53 | 1017.7 |
| 20260510134730 | 67 | 298 | 3.5 | 7.0 | 0.00 | 0.00 | 0.00 | 53 | 1017.6 |
| 20260510134629 | 67 | 323 | 3.5 | 7.0 | 0.00 | 0.00 | 0.00 | 51 | 1017.7 |
| 20260510134530 | 67 | 333 | 3.5 | 7.0 | 0.00 | 0.00 | 0.00 | 52 | 1017.7 |
| 20260510134429 | 67 | 338 | 3.5 | 6.1 | 0.00 | 0.00 | 0.00 | 52 | 1017.6 |
| 20260510134328 | 67 | 324 | 3.5 | 6.1 | 0.00 | 0.00 | 0.00 | 55 | 1017.7 |
| 20260510134229 | 67 | 342 | 3.5 | 5.2 | 0.00 | 0.00 | 0.00 | 54 | 1017.7 |
| 20260510134129 | 67 | 333 | 3.5 | 5.2 | 0.00 | 0.00 | 0.00 | 53 | 1017.7 |
| 20260510134030 | 67 | 298 | 3.5 | 5.2 | 0.00 | 0.00 | 0.00 | 57 | 1017.7 |
| 20260510133930 | 67 | 25 | 3.5 | 6.1 | 0.00 | 0.00 | 0.00 | 56 | 1017.6 |
| 20260510133830 | 67 | 5 | 3.5 | 6.1 | 0.00 | 0.00 | 0.00 | 54 | 1017.6 |
| 20260510133728 | 67 | 355 | 3.5 | 6.1 | 0.00 | 0.00 | 0.00 | 56 | 1017.6 |
| 20260510133629 | 67 | 349 | 3.5 | 6.1 | 0.00 | 0.00 | 0.00 | 60 | 1017.5 |
| 20260510133530 | 67 | 11 | 3.5 | 6.1 | 0.00 | 0.00 | 0.00 | 59 | 1017.5 |
| 20260510133429 | 67 | 338 | 2.6 | 6.1 | 0.00 | 0.00 | 0.00 | 58 | 1017.6 |
| 20260510133330 | 67 | 21 | 2.6 | 6.1 | 0.00 | 0.00 | 0.00 | 59 | 1017.5 |
| 20260510133226 | 67 | 351 | 3.5 | 6.1 | 0.00 | 0.00 | 0.00 | 56 | 1017.5 |
| 20260510133125 | 67 | 5 | 2.6 | 6.1 | 0.00 | 0.00 | 0.00 | 55 | 1017.6 |
| 20260510133026 | 67 | 20 | 2.6 | 6.1 | 0.00 | 0.00 | 0.00 | 56 | 1017.5 |
| 20260510132926 | 67 | 350 | 2.6 | 4.3 | 0.00 | 0.00 | 0.00 | 60 | 1017.5 |
| 20260510132824 | 67 | 13 | 2.6 | 4.3 | 0.00 | 0.00 | 0.00 | 60 | 1017.5 |
| 20260510132726 | 67 | 13 | 2.6 | 4.3 | 0.00 | 0.00 | 0.00 | 60 | 1017.5 |
| 20260510132524 | 66 | 13 | 3.5 | 7.0 | 0.00 | 0.00 | 0.00 | 61 | 1017.5 |
| 20260510132425 | 66 | 13 | 3.5 | 7.0 | 0.00 | 0.00 | 0.00 | 61 | 1017.5 |
| 20260510132325 | 66 | 13 | 3.5 | 7.0 | 0.00 | 0.00 | 0.00 | 62 | 1017.5 |
| 20260510132224 | 66 | 5 | 3.5 | 7.0 | 0.00 | 0.00 | 0.00 | 61 | 1017.5 |
| 20260510132125 | 66 | 23 | 3.5 | 7.0 | 0.00 | 0.00 | 0.00 | 59 | 1017.5 |
| 20260510132022 | 66 | 13 | 3.5 | 7.0 | 0.00 | 0.00 | 0.00 | 61 | 1017.5 |
| 20260510131922 | 66 | 346 | 3.5 | 7.0 | 0.00 | 0.00 | 0.00 | 61 | 1017.5 |
| 20260510131820 | 66 | 346 | 4.3 | 7.0 | 0.00 | 0.00 | 0.00 | 57 | 1017.6 |
| 20260510131720 | 66 | 350 | 4.3 | 7.0 | 0.00 | 0.00 | 0.00 | 57 | 1017.5 |
| 20260510131619 | 66 | 304 | 4.3 | 7.0 | 0.00 | 0.00 | 0.00 | 58 | 1017.4 |
| 20260510131518 | 66 | 292 | 4.3 | 7.0 | 0.00 | 0.00 | 0.00 | 57 | 1017.5 |
| 20260510131419 | 66 | 307 | 4.3 | 7.0 | 0.00 | 0.00 | 0.00 | 59 | 1017.5 |
| 20260510131318 | 66 | 298 | 4.3 | 7.0 | 0.00 | 0.00 | 0.00 | 57 | 1017.5 |
| 20260510131216 | 66 | 318 | 3.5 | 7.0 | 0.00 | 0.00 | 0.00 | 59 | 1017.4 |
| 20260510131115 | 66 | 318 | 3.5 | 7.0 | 0.00 | 0.00 | 0.00 | 58 | 1017.5 |
| 20260510131014 | 66 | 328 | 3.5 | 7.0 | 0.00 | 0.00 | 0.00 | 57 | 1017.4 |
| 20260510130916 | 66 | 355 | 3.5 | 7.0 | 0.00 | 0.00 | 0.00 | 58 | 1017.4 |
| 20260510130816 | 66 | 319 | 3.5 | 7.0 | 0.00 | 0.00 | 0.00 | 55 | 1017.4 |
| 20260510130713 | 66 | 330 | 3.5 | 5.2 | 0.00 | 0.00 | 0.00 | 56 | 1017.4 |
| 20260510130612 | 66 | 326 | 3.5 | 5.2 | 0.00 | 0.00 | 0.00 | 57 | 1017.3 |
| 20260510130514 | 66 | 321 | 3.5 | 5.2 | 0.00 | 0.00 | 0.00 | 58 | 1017.3 |
| 20260510130412 | 65 | 331 | 3.5 | 5.2 | 0.00 | 0.00 | 0.00 | 59 | 1017.4 |
| 20260510130305 | 65 | 351 | 2.6 | 4.3 | 0.00 | 0.00 | 0.00 | 59 | 1017.3 |
| 20260510130205 | 65 | 348 | 2.6 | 4.3 | 0.00 | 0.00 | 0.00 | 60 | 1017.4 |
| 20260510130106 | 65 | 344 | 2.6 | 4.3 | 0.00 | 0.00 | 0.00 | 62 | 1017.3 |
| 20260510130006 | 65 | 327 | 2.6 | 4.3 | 0.00 | 0.00 | 0.00 | 61 | 1017.2 |
| 20260510125906 | 65 | 327 | 2.6 | 4.3 | 0.00 | 0.00 | 0.00 | 60 | 1017.2 |
| 20260510125759 | 65 | 5 | 2.6 | 4.3 | 0.00 | 0.00 | 0.00 | 62 | 1017.2 |
| 20260510125700 | 65 | 5 | 2.6 | 4.3 | 0.00 | 0.00 | 0.00 | 62 | 1017.2 |
| 20260510125600 | 65 | 343 | 2.6 | 3.5 | 0.00 | 0.00 | 0.00 | 62 | 1017.3 |
| 20260510125459 | 65 | 342 | 1.7 | 3.5 | 0.00 | 0.00 | 0.00 | 64 | 1017.1 |
| 20260510125400 | 65 | 320 | 1.7 | 3.5 | 0.00 | 0.00 | 0.00 | 64 | 1017.1 |
| 20260510125258 | 65 | 298 | 1.7 | 3.5 | 0.00 | 0.00 | 0.00 | 65 | 1017.1 |
| 20260510125157 | 65 | 324 | 1.7 | 3.5 | 0.00 | 0.00 | 0.00 | 64 | 1017.1 |
| 20260510125057 | 65 | 311 | 1.7 | 3.5 | 0.00 | 0.00 | 0.00 | 64 | 1017.1 |
| 20260510124958 | 65 | 319 | 1.7 | 3.5 | 0.00 | 0.00 | 0.00 | 65 | 1017.0 |
| 20260510124857 | 65 | 312 | 1.7 | 3.5 | 0.00 | 0.00 | 0.00 | 64 | 1017.0 |
| 20260510124758 | 64 | 291 | 1.7 | 3.5 | 0.00 | 0.00 | 0.00 | 65 | 1017.2 |
| 20260510124658 | 64 | 293 | 1.7 | 3.5 | 0.00 | 0.00 | 0.00 | 64 | 1017.1 |
| 20260510124557 | 64 | 290 | 1.7 | 3.5 | 0.00 | 0.00 | 0.00 | 65 | 1017.1 |
| 20260510124457 | 64 | 304 | 1.7 | 3.5 | 0.00 | 0.00 | 0.00 | 65 | 1017.1 |
| 20260510124357 | 64 | 309 | 1.7 | 3.5 | 0.00 | 0.00 | 0.00 | 65 | 1017.1 |
| 20260510124255 | 64 | 315 | 1.7 | 3.5 | 0.00 | 0.00 | 0.00 | 67 | 1017.1 |
| 20260510124154 | 64 | 298 | 1.7 | 3.5 | 0.00 | 0.00 | 0.00 | 67 | 1017.1 |
| 20260510124052 | 64 | 326 | 1.7 | 3.5 | 0.00 | 0.00 | 0.00 | 68 | 1017.1 |
| 20260510123952 | 64 | 326 | 1.7 | 3.5 | 0.00 | 0.00 | 0.00 | 68 | 1017.1 |
| 20260510123852 | 64 | 326 | 1.7 | 3.5 | 0.00 | 0.00 | 0.00 | 69 | 1017.0 |
| 20260510123752 | 64 | 287 | 1.7 | 2.6 | 0.00 | 0.00 | 0.00 | 71 | 1017.1 |
| 20260510123652 | 64 | 317 | 1.7 | 2.6 | 0.00 | 0.00 | 0.00 | 70 | 1017.1 |
| 20260510123548 | 64 | 317 | 1.7 | 3.5 | 0.00 | 0.00 | 0.00 | 70 | 1017.1 |
| 20260510123448 | 64 | 318 | 1.7 | 4.3 | 0.00 | 0.00 | 0.00 | 70 | 1017.1 |
| 20260510123347 | 64 | 320 | 1.7 | 4.3 | 0.00 | 0.00 | 0.00 | 70 | 1017.1 |
| 20260510123248 | 64 | 314 | 1.7 | 4.3 | 0.00 | 0.00 | 0.00 | 70 | 1017.0 |
| 20260510123148 | 63 | 317 | 1.7 | 4.3 | 0.00 | 0.00 | 0.00 | 70 | 1017.0 |
| 20260510123046 | 63 | 317 | 1.7 | 4.3 | 0.00 | 0.00 | 0.00 | 71 | 1017.1 |
| 20260510122947 | 63 | 300 | 1.7 | 4.3 | 0.00 | 0.00 | 0.00 | 69 | 1017.0 |
| 20260510122845 | 63 | 300 | 1.7 | 4.3 | 0.00 | 0.00 | 0.00 | 69 | 1017.1 |
| 20260510122746 | 63 | 288 | 1.7 | 4.3 | 0.00 | 0.00 | 0.00 | 69 | 1017.1 |
| 20260510122644 | 63 | 292 | 1.7 | 4.3 | 0.00 | 0.00 | 0.00 | 70 | 1017.1 |
| 20260510122544 | 63 | 327 | 1.7 | 4.3 | 0.00 | 0.00 | 0.00 | 70 | 1017.0 |
| 20260510122443 | 63 | 321 | 1.7 | 3.5 | 0.00 | 0.00 | 0.00 | 72 | 1017.1 |
| 20260510122343 | 63 | 332 | 1.7 | 3.5 | 0.00 | 0.00 | 0.00 | 72 | 1017.0 |
| 20260510122244 | 63 | 303 | 1.7 | 3.5 | 0.00 | 0.00 | 0.00 | 72 | 1016.9 |
| 20260510122143 | 63 | 329 | 1.7 | 3.5 | 0.00 | 0.00 | 0.00 | 73 | 1016.9 |
| 20260510122044 | 63 | 329 | 1.7 | 3.5 | 0.00 | 0.00 | 0.00 | 72 | 1016.9 |
| 20260510121944 | 63 | 329 | 0.9 | 3.5 | 0.00 | 0.00 | 0.00 | 72 | 1016.9 |
| 20260510121839 | 63 | 312 | 0.9 | 3.5 | 0.00 | 0.00 | 0.00 | 71 | 1016.9 |
| 20260510121738 | 62 | 308 | 0.9 | 3.5 | 0.00 | 0.00 | 0.00 | 71 | 1016.9 |
| 20260510121638 | 62 | 308 | 0.9 | 3.5 | 0.00 | 0.00 | 0.00 | 71 | 1016.9 |
| 20260510121537 | 62 | 306 | 1.7 | 3.5 | 0.00 | 0.00 | 0.00 | 72 | 1016.9 |
| 20260510121438 | 62 | 311 | 1.7 | 3.5 | 0.00 | 0.00 | 0.00 | 72 | 1016.9 |
| 20260510121338 | 62 | 311 | 1.7 | 3.5 | 0.00 | 0.00 | 0.00 | 72 | 1016.9 |
| 20260510121235 | 62 | 312 | 0.9 | 3.5 | 0.00 | 0.00 | 0.00 | 73 | 1016.9 |
| 20260510121136 | 62 | 313 | 0.9 | 2.6 | 0.00 | 0.00 | 0.00 | 73 | 1016.9 |
| 20260510121034 | 62 | 312 | 1.7 | 2.6 | 0.00 | 0.00 | 0.00 | 73 | 1016.9 |
| 20260510120933 | 62 | 312 | 1.7 | 3.5 | 0.00 | 0.00 | 0.00 | 73 | 1016.7 |
| 20260510120832 | 62 | 312 | 1.7 | 3.5 | 0.00 | 0.00 | 0.00 | 73 | 1016.7 |
| 20260510120730 | 62 | 312 | 1.7 | 3.5 | 0.00 | 0.00 | 0.00 | 73 | 1016.7 |
| 20260510120630 | 62 | 313 | 1.7 | 6.1 | 0.00 | 0.00 | 0.00 | 72 | 1016.7 |
| 20260510120527 | 62 | 313 | 1.7 | 6.1 | 0.00 | 0.00 | 0.00 | 72 | 1016.6 |
| 20260510120425 | 62 | 312 | 1.7 | 6.1 | 0.00 | 0.00 | 0.00 | 72 | 1016.5 |
| 20260510120325 | 62 | 312 | 1.7 | 6.1 | 0.00 | 0.00 | 0.00 | 71 | 1016.5 |
| 20260510120226 | 62 | 312 | 2.6 | 6.1 | 0.00 | 0.00 | 0.00 | 72 | 1016.5 |
| 20260510120127 | 61 | 311 | 2.6 | 6.1 | 0.00 | 0.00 | 0.00 | 71 | 1016.5 |
| 20260510120026 | 61 | 313 | 2.6 | 6.1 | 0.00 | 0.00 | 0.00 | 71 | 1016.5 |
| 20260510115925 | 61 | 320 | 2.6 | 6.1 | 0.00 | 0.00 | 0.00 | 71 | 1016.5 |
| 20260510115826 | 61 | 298 | 2.6 | 6.1 | 0.00 | 0.00 | 0.00 | 71 | 1016.5 |
| 20260510115721 | 61 | 294 | 3.5 | 6.1 | 0.00 | 0.00 | 0.00 | 70 | 1016.5 |
| 20260510115622 | 61 | 317 | 3.5 | 6.1 | 0.00 | 0.00 | 0.00 | 71 | 1016.5 |
| 20260510115519 | 61 | 318 | 3.5 | 7.8 | 0.00 | 0.00 | 0.00 | 71 | 1016.5 |
| 20260510115417 | 61 | 314 | 3.5 | 7.8 | 0.00 | 0.00 | 0.00 | 70 | 1016.5 |
| 20260510115317 | 61 | 296 | 3.5 | 7.8 | 0.00 | 0.00 | 0.00 | 70 | 1016.4 |
| 20260510115216 | 61 | 324 | 3.5 | 7.8 | 0.00 | 0.00 | 0.00 | 70 | 1016.4 |
| 20260510115116 | 61 | 306 | 4.3 | 7.8 | 0.00 | 0.00 | 0.00 | 70 | 1016.4 |
| 20260510115015 | 61 | 317 | 4.3 | 7.8 | 0.00 | 0.00 | 0.00 | 69 | 1016.3 |
| 20260510114916 | 61 | 292 | 4.3 | 7.8 | 0.00 | 0.00 | 0.00 | 69 | 1016.3 |
| 20260510114816 | 61 | 282 | 4.3 | 7.8 | 0.00 | 0.00 | 0.00 | 69 | 1016.3 |
| 20260510114715 | 61 | 307 | 4.3 | 8.7 | 0.00 | 0.00 | 0.00 | 68 | 1016.2 |
| 20260510114609 | 61 | 296 | 4.3 | 8.7 | 0.00 | 0.00 | 0.00 | 69 | 1016.2 |
| 20260510114509 | 61 | 300 | 4.3 | 8.7 | 0.00 | 0.00 | 0.00 | 69 | 1016.3 |
| 20260510114410 | 61 | 295 | 4.3 | 8.7 | 0.00 | 0.00 | 0.00 | 69 | 1016.2 |
| 20260510114209 | 61 | 329 | 4.3 | 8.7 | 0.00 | 0.00 | 0.00 | 69 | 1016.2 |
| 20260510114104 | 61 | 317 | 4.3 | 8.7 | 0.00 | 0.00 | 0.00 | 69 | 1016.2 |
| 20260510114004 | 61 | 288 | 4.3 | 8.7 | 0.00 | 0.00 | 0.00 | 69 | 1016.1 |
| 20260510113905 | 60 | 290 | 4.3 | 8.7 | 0.00 | 0.00 | 0.00 | 68 | 1016.0 |
| 20260510113804 | 60 | 310 | 3.5 | 8.7 | 0.00 | 0.00 | 0.00 | 69 | 1016.0 |
| 20260510113703 | 60 | 315 | 3.5 | 8.7 | 0.00 | 0.00 | 0.00 | 70 | 1016.0 |
| 20260510113552 | 60 | 309 | 3.5 | 8.7 | 0.00 | 0.00 | 0.00 | 71 | 1015.9 |
| 20260510113451 | 60 | 312 | 3.5 | 7.0 | 0.00 | 0.00 | 0.00 | 72 | 1015.9 |
| 20260510113353 | 60 | 305 | 3.5 | 8.7 | 0.00 | 0.00 | 0.00 | 71 | 1015.9 |
| 20260510113251 | 60 | 301 | 3.5 | 8.7 | 0.00 | 0.00 | 0.00 | 72 | 1015.9 |
| 20260510113151 | 60 | 323 | 3.5 | 8.7 | 0.00 | 0.00 | 0.00 | 73 | 1015.8 |
| 20260510113048 | 60 | 315 | 3.5 | 8.7 | 0.00 | 0.00 | 0.00 | 74 | 1015.9 |
| 20260510112945 | 60 | 310 | 3.5 | 8.7 | 0.00 | 0.00 | 0.00 | 74 | 1015.8 |
| 20260510112846 | 60 | 313 | 3.5 | 8.7 | 0.00 | 0.00 | 0.00 | 74 | 1015.8 |
| 20260510112746 | 60 | 302 | 3.5 | 8.7 | 0.00 | 0.00 | 0.00 | 73 | 1015.7 |
| 20260510112645 | 60 | 304 | 3.5 | 8.7 | 0.00 | 0.00 | 0.00 | 73 | 1015.7 |
| 20260510112540 | 59 | 306 | 2.6 | 8.7 | 0.00 | 0.00 | 0.00 | 74 | 1015.6 |
| 20260510112438 | 59 | 288 | 2.6 | 8.7 | 0.00 | 0.00 | 0.00 | 76 | 1015.7 |
| 20260510112340 | 59 | 328 | 1.7 | 7.0 | 0.00 | 0.00 | 0.00 | 77 | 1015.7 |
| 20260510112239 | 59 | 309 | 1.7 | 7.0 | 0.00 | 0.00 | 0.00 | 78 | 1015.6 |
| 20260510112139 | 59 | 301 | 1.7 | 3.5 | 0.00 | 0.00 | 0.00 | 79 | 1015.5 |
| 20260510112031 | 59 | 298 | 1.7 | 3.5 | 0.00 | 0.00 | 0.00 | 79 | 1015.6 |
| 20260510111929 | 59 | 298 | 1.7 | 3.5 | 0.00 | 0.00 | 0.00 | 80 | 1015.6 |
| 20260510111830 | 59 | 269 | 1.7 | 2.6 | 0.00 | 0.00 | 0.00 | 79 | 1015.6 |
| 20260510111729 | 59 | 269 | 1.7 | 2.6 | 0.00 | 0.00 | 0.00 | 80 | 1015.6 |
| 20260510111629 | 59 | 268 | 1.7 | 2.6 | 0.00 | 0.00 | 0.00 | 80 | 1015.6 |
| 20260510111523 | 59 | 268 | 1.7 | 2.6 | 0.00 | 0.00 | 0.00 | 80 | 1015.5 |
| 20260510111423 | 59 | 267 | 1.7 | 3.5 | 0.00 | 0.00 | 0.00 | 80 | 1015.5 |
| 20260510111323 | 59 | 267 | 1.7 | 3.5 | 0.00 | 0.00 | 0.00 | 80 | 1015.5 |
| 20260510111223 | 59 | 268 | 1.7 | 3.5 | 0.00 | 0.00 | 0.00 | 80 | 1015.5 |
| 20260510111124 | 59 | 268 | 1.7 | 3.5 | 0.00 | 0.00 | 0.00 | 80 | 1015.5 |
| 20260510111020 | 59 | 268 | 1.7 | 3.5 | 0.00 | 0.00 | 0.00 | 80 | 1015.5 |
| 20260510110917 | 59 | 269 | 1.7 | 3.5 | 0.00 | 0.00 | 0.00 | 80 | 1015.5 |
| 20260510110818 | 59 | 271 | 1.7 | 3.5 | 0.00 | 0.00 | 0.00 | 80 | 1015.4 |
| 20260510110717 | 59 | 271 | 1.7 | 3.5 | 0.00 | 0.00 | 0.00 | 80 | 1015.4 |
| 20260510110617 | 59 | 272 | 1.7 | 3.5 | 0.00 | 0.00 | 0.00 | 80 | 1015.4 |
| 20260510110508 | 59 | 302 | 1.7 | 3.5 | 0.00 | 0.00 | 0.00 | 80 | 1015.5 |
| 20260510110407 | 58 | 290 | 1.7 | 3.5 | 0.00 | 0.00 | 0.00 | 80 | 1015.4 |
| 20260510110308 | 59 | 290 | 1.7 | 3.5 | 0.00 | 0.00 | 0.00 | 80 | 1015.4 |
| 20260510110207 | 59 | 293 | 1.7 | 3.5 | 0.00 | 0.00 | 0.00 | 80 | 1015.4 |
| 20260510110107 | 58 | 296 | 1.7 | 3.5 | 0.00 | 0.00 | 0.00 | 80 | 1015.4 |
| 20260510110002 | 58 | 295 | 1.7 | 3.5 | 0.00 | 0.00 | 0.00 | 80 | 1015.4 |
| 20260510105902 | 58 | 267 | 1.7 | 3.5 | 0.00 | 0.00 | 0.00 | 79 | 1015.3 |
| 20260510105803 | 58 | 265 | 1.7 | 3.5 | 0.00 | 0.00 | 0.00 | 79 | 1015.3 |
| 20260510105703 | 58 | 313 | 1.7 | 3.5 | 0.00 | 0.00 | 0.00 | 79 | 1015.4 |
| 20260510105601 | 58 | 301 | 1.7 | 3.5 | 0.00 | 0.00 | 0.00 | 79 | 1015.3 |
| 20260510105458 | 58 | 296 | 1.7 | 3.5 | 0.00 | 0.00 | 0.00 | 79 | 1015.3 |
| 20260510105356 | 58 | 296 | 1.7 | 3.5 | 0.00 | 0.00 | 0.00 | 79 | 1015.4 |
| 20260510105257 | 58 | 302 | 1.7 | 3.5 | 0.00 | 0.00 | 0.00 | 79 | 1015.3 |
| 20260510105158 | 58 | 298 | 2.6 | 3.5 | 0.00 | 0.00 | 0.00 | 79 | 1015.3 |
| 20260510105055 | 58 | 310 | 2.6 | 6.1 | 0.00 | 0.00 | 0.00 | 79 | 1015.1 |
| 20260510104948 | 58 | 312 | 2.6 | 6.1 | 0.00 | 0.00 | 0.00 | 79 | 1015.1 |
| 20260510104845 | 58 | 290 | 2.6 | 6.1 | 0.00 | 0.00 | 0.00 | 79 | 1015.3 |
| 20260510104746 | 58 | 298 | 2.6 | 6.1 | 0.00 | 0.00 | 0.00 | 79 | 1015.3 |
| 20260510104646 | 58 | 292 | 2.6 | 6.1 | 0.00 | 0.00 | 0.00 | 79 | 1015.3 |
| 20260510104545 | 58 | 290 | 2.6 | 6.1 | 0.00 | 0.00 | 0.00 | 79 | 1015.3 |
| 20260510104439 | 58 | 291 | 2.6 | 6.1 | 0.00 | 0.00 | 0.00 | 78 | 1015.3 |
| 20260510104338 | 58 | 284 | 2.6 | 6.1 | 0.00 | 0.00 | 0.00 | 78 | 1015.3 |
| 20260510104240 | 58 | 282 | 2.6 | 6.1 | 0.00 | 0.00 | 0.00 | 78 | 1015.1 |
| 20260510104140 | 58 | 281 | 1.7 | 6.1 | 0.00 | 0.00 | 0.00 | 78 | 1015.3 |
| 20260510104040 | 58 | 311 | 1.7 | 4.3 | 0.00 | 0.00 | 0.00 | 78 | 1015.1 |
| 20260510103934 | 58 | 310 | 1.7 | 4.3 | 0.00 | 0.00 | 0.00 | 78 | 1015.1 |
| 20260510103833 | 58 | 309 | 1.7 | 4.3 | 0.00 | 0.00 | 0.00 | 78 | 1015.1 |
| 20260510103734 | 58 | 301 | 1.7 | 4.3 | 0.00 | 0.00 | 0.00 | 78 | 1015.1 |
| 20260510103633 | 58 | 304 | 0.9 | 4.3 | 0.00 | 0.00 | 0.00 | 78 | 1015.1 |
| 20260510103534 | 58 | 269 | 0.9 | 2.6 | 0.00 | 0.00 | 0.00 | 78 | 1015.1 |
| 20260510103425 | 58 | 267 | 0.9 | 2.6 | 0.00 | 0.00 | 0.00 | 79 | 1015.0 |
| 20260510103326 | 58 | 263 | 0.9 | 2.6 | 0.00 | 0.00 | 0.00 | 79 | 1015.0 |
| 20260510103225 | 58 | 259 | 0.9 | 2.6 | 0.00 | 0.00 | 0.00 | 79 | 1015.0 |
| 20260510103125 | 58 | 259 | 0.9 | 2.6 | 0.00 | 0.00 | 0.00 | 79 | 1014.9 |
| 20260510103023 | 58 | 259 | 0.9 | 2.6 | 0.00 | 0.00 | 0.00 | 79 | 1015.0 |
| 20260510102918 | 58 | 259 | 0.9 | 2.6 | 0.00 | 0.00 | 0.00 | 78 | 1015.0 |
| 20260510102816 | 58 | 259 | 0.9 | 2.6 | 0.00 | 0.00 | 0.00 | 78 | 1014.8 |
| 20260510102718 | 58 | 259 | 0.9 | 2.6 | 0.00 | 0.00 | 0.00 | 79 | 1014.8 |
| 20260510102618 | 58 | 259 | 0.9 | 1.7 | 0.00 | 0.00 | 0.00 | 78 | 1014.8 |
| 20260510102517 | 58 | 259 | 0.9 | 1.7 | 0.00 | 0.00 | 0.00 | 78 | 1014.8 |
| 20260510102415 | 58 | 259 | 0.0 | 1.7 | 0.00 | 0.00 | 0.00 | 78 | 1014.7 |
| 20260510102312 | 58 | 259 | 0.0 | 1.7 | 0.00 | 0.00 | 0.00 | 78 | 1014.7 |
| 20260510102212 | 58 | 259 | 0.0 | 1.7 | 0.00 | 0.00 | 0.00 | 78 | 1014.6 |
| 20260510102111 | 58 | 259 | 0.0 | 1.7 | 0.00 | 0.00 | 0.00 | 78 | 1014.7 |
| 20260510102012 | 58 | 259 | 0.0 | 1.7 | 0.00 | 0.00 | 0.00 | 78 | 1014.5 |
| 20260510101901 | 58 | 259 | 0.0 | 1.7 | 0.00 | 0.00 | 0.00 | 78 | 1014.5 |
| 20260510101800 | 58 | 259 | 0.0 | 1.7 | 0.00 | 0.00 | 0.00 | 78 | 1014.6 |
| 20260510101702 | 58 | 259 | 0.0 | 3.5 | 0.00 | 0.00 | 0.00 | 78 | 1014.5 |
| 20260510101602 | 58 | 259 | 0.0 | 3.5 | 0.00 | 0.00 | 0.00 | 78 | 1014.5 |
| 20260510101501 | 58 | 259 | 0.0 | 3.5 | 0.00 | 0.00 | 0.00 | 78 | 1014.5 |
| 20260510101359 | 58 | 259 | 0.0 | 3.5 | 0.00 | 0.00 | 0.00 | 78 | 1014.5 |
| 20260510101259 | 58 | 259 | 0.0 | 3.5 | 0.00 | 0.00 | 0.00 | 78 | 1014.5 |
| 20260510101200 | 58 | 258 | 0.0 | 3.5 | 0.00 | 0.00 | 0.00 | 78 | 1014.5 |
| 20260510101058 | 58 | 295 | 0.0 | 3.5 | 0.00 | 0.00 | 0.00 | 78 | 1014.4 |
| 20260510100955 | 58 | 295 | 0.0 | 3.5 | 0.00 | 0.00 | 0.00 | 78 | 1014.5 |
| 20260510100855 | 58 | 295 | 0.0 | 3.5 | 0.00 | 0.00 | 0.00 | 78 | 1014.5 |
| 20260510100752 | 58 | 295 | 0.0 | 3.5 | 0.00 | 0.00 | 0.00 | 78 | 1014.5 |
| 20260510100653 | 58 | 272 | 0.0 | 1.7 | 0.00 | 0.00 | 0.00 | 78 | 1014.5 |
| 20260510100552 | 58 | 272 | 0.0 | 1.7 | 0.00 | 0.00 | 0.00 | 78 | 1014.4 |
| 20260510100450 | 58 | 272 | 0.0 | 1.7 | 0.00 | 0.00 | 0.00 | 78 | 1014.5 |
| 20260510100342 | 58 | 272 | 0.0 | 1.7 | 0.00 | 0.00 | 0.00 | 78 | 1014.4 |
| 20260510100243 | 58 | 272 | 0.0 | 1.7 | 0.00 | 0.00 | 0.00 | 78 | 1014.4 |
| 20260510100145 | 58 | 272 | 0.0 | 1.7 | 0.00 | 0.00 | 0.00 | 78 | 1014.4 |
| 20260510100043 | 58 | 272 | 0.0 | 1.7 | 0.00 | 0.00 | 0.00 | 79 | 1014.4 |
| 20260510095939 | 58 | 275 | 0.0 | 1.7 | 0.00 | 0.00 | 0.00 | 79 | 1014.3 |
| 20260510095838 | 58 | 275 | 0.0 | 1.7 | 0.00 | 0.00 | 0.00 | 79 | 1014.3 |
| 20260510095737 | 58 | 275 | 0.0 | 1.7 | 0.00 | 0.00 | 0.00 | 79 | 1014.3 |
| 20260510095635 | 58 | 275 | 0.0 | 1.7 | 0.00 | 0.00 | 0.00 | 79 | 1014.4 |
| 20260510095535 | 58 | 275 | 0.0 | 1.7 | 0.00 | 0.00 | 0.00 | 79 | 1014.3 |
| 20260510095434 | 58 | 275 | 0.0 | 1.7 | 0.00 | 0.00 | 0.00 | 79 | 1014.3 |
| 20260510095334 | 58 | 275 | 0.0 | 1.7 | 0.00 | 0.00 | 0.00 | 79 | 1014.3 |
| 20260510095231 | 58 | 275 | 0.0 | 0.0 | 0.00 | 0.00 | 0.00 | 79 | 1014.4 |
| 20260510095131 | 58 | 275 | 0.0 | 0.0 | 0.00 | 0.00 | 0.00 | 79 | 1014.3 |
| 20260510095030 | 58 | 275 | 0.0 | 0.9 | 0.00 | 0.00 | 0.00 | 79 | 1014.3 |
| 20260510094927 | 58 | 275 | 0.0 | 0.9 | 0.00 | 0.00 | 0.00 | 79 | 1014.3 |
| 20260510094819 | 58 | 275 | 0.0 | 0.9 | 0.00 | 0.00 | 0.00 | 79 | 1014.3 |
| 20260510094719 | 58 | 275 | 0.0 | 0.9 | 0.00 | 0.00 | 0.00 | 78 | 1014.3 |
| 20260510094618 | 58 | 275 | 0.0 | 1.7 | 0.00 | 0.00 | 0.00 | 78 | 1014.2 |
| 20260510094516 | 58 | 275 | 0.0 | 1.7 | 0.00 | 0.00 | 0.00 | 78 | 1014.3 |
| 20260510094418 | 58 | 275 | 0.9 | 1.7 | 0.00 | 0.00 | 0.00 | 78 | 1014.2 |
| 20260510094316 | 58 | 275 | 0.9 | 2.6 | 0.00 | 0.00 | 0.00 | 79 | 1014.3 |
| 20260510094215 | 58 | 275 | 0.9 | 2.6 | 0.00 | 0.00 | 0.00 | 79 | 1014.3 |
| 20260510094115 | 58 | 275 | 0.9 | 2.6 | 0.00 | 0.00 | 0.00 | 79 | 1014.3 |
| 20260510094013 | 58 | 275 | 0.9 | 2.6 | 0.00 | 0.00 | 0.00 | 79 | 1014.3 |
| 20260510093912 | 58 | 275 | 0.9 | 2.6 | 0.00 | 0.00 | 0.00 | 79 | 1014.2 |
| 20260510093805 | 58 | 275 | 0.9 | 2.6 | 0.00 | 0.00 | 0.00 | 79 | 1014.3 |
| 20260510093705 | 58 | 275 | 0.9 | 2.6 | 0.00 | 0.00 | 0.00 | 79 | 1014.4 |
| 20260510093606 | 58 | 275 | 0.9 | 2.6 | 0.00 | 0.00 | 0.00 | 79 | 1014.3 |
| 20260510093505 | 59 | 275 | 0.9 | 2.6 | 0.00 | 0.00 | 0.00 | 79 | 1014.4 |
| 20260510093406 | 59 | 275 | 0.9 | 2.6 | 0.00 | 0.00 | 0.00 | 78 | 1014.3 |
| 20260510093257 | 59 | 275 | 0.9 | 1.7 | 0.00 | 0.00 | 0.00 | 78 | 1014.3 |
| 20260510093156 | 59 | 275 | 0.9 | 1.7 | 0.00 | 0.00 | 0.00 | 78 | 1014.3 |
| 20260510093055 | 59 | 275 | 0.9 | 2.6 | 0.00 | 0.00 | 0.00 | 78 | 1014.3 |
| 20260510092955 | 59 | 275 | 0.9 | 2.6 | 0.00 | 0.00 | 0.00 | 78 | 1014.3 |
| 20260510092856 | 59 | 275 | 0.9 | 2.6 | 0.00 | 0.00 | 0.00 | 78 | 1014.3 |
| 20260510092756 | 59 | 275 | 0.9 | 2.6 | 0.00 | 0.00 | 0.00 | 78 | 1014.3 |
| 20260510092654 | 59 | 274 | 0.9 | 2.6 | 0.00 | 0.00 | 0.00 | 78 | 1014.2 |
| 20260510092551 | 59 | 274 | 0.9 | 2.6 | 0.00 | 0.00 | 0.00 | 78 | 1014.2 |
| 20260510092452 | 59 | 274 | 0.9 | 2.6 | 0.00 | 0.00 | 0.00 | 78 | 1014.2 |
| 20260510092349 | 59 | 274 | 0.9 | 2.6 | 0.00 | 0.00 | 0.00 | 78 | 1014.3 |
| 20260510092249 | 59 | 274 | 0.9 | 2.6 | 0.00 | 0.00 | 0.00 | 78 | 1014.2 |
| 20260510092147 | 59 | 274 | 0.9 | 2.6 | 0.00 | 0.00 | 0.00 | 78 | 1014.2 |
| 20260510092047 | 59 | 288 | 0.9 | 2.6 | 0.00 | 0.00 | 0.00 | 78 | 1014.3 |
| 20260510091946 | 59 | 288 | 0.9 | 2.6 | 0.00 | 0.00 | 0.00 | 78 | 1014.2 |
| 20260510091844 | 59 | 288 | 0.9 | 2.6 | 0.00 | 0.00 | 0.00 | 78 | 1014.3 |
| 20260510091737 | 59 | 289 | 0.9 | 2.6 | 0.00 | 0.00 | 0.00 | 78 | 1014.2 |
| 20260510091637 | 59 | 285 | 0.9 | 2.6 | 0.00 | 0.00 | 0.00 | 78 | 1014.3 |
| 20260510091538 | 59 | 311 | 0.9 | 1.7 | 0.00 | 0.00 | 0.00 | 78 | 1014.1 |
| 20260510091437 | 59 | 311 | 0.9 | 1.7 | 0.00 | 0.00 | 0.00 | 78 | 1014.2 |
| 20260510091334 | 59 | 311 | 0.9 | 2.6 | 0.00 | 0.00 | 0.00 | 78 | 1014.1 |
| 20260510091228 | 59 | 311 | 0.9 | 2.6 | 0.00 | 0.00 | 0.00 | 78 | 1014.2 |
| 20260510091127 | 59 | 311 | 0.9 | 2.6 | 0.00 | 0.00 | 0.00 | 78 | 1014.2 |
| 20260510091028 | 59 | 311 | 0.9 | 3.5 | 0.00 | 0.00 | 0.00 | 78 | 1014.2 |
| 20260510090928 | 59 | 312 | 0.9 | 3.5 | 0.00 | 0.00 | 0.00 | 78 | 1014.1 |
| 20260510090828 | 59 | 312 | 0.9 | 3.5 | 0.00 | 0.00 | 0.00 | 78 | 1014.1 |
| 20260510090727 | 59 | 312 | 0.9 | 3.5 | 0.00 | 0.00 | 0.00 | 78 | 1014.1 |
| 20260510090626 | 59 | 312 | 0.9 | 3.5 | 0.00 | 0.00 | 0.00 | 78 | 1014.1 |
| 20260510090524 | 59 | 312 | 0.9 | 3.5 | 0.00 | 0.00 | 0.00 | 78 | 1014.1 |
| 20260510090424 | 59 | 312 | 0.9 | 3.5 | 0.00 | 0.00 | 0.00 | 78 | 1014.1 |
| 20260510090322 | 59 | 312 | 0.9 | 3.5 | 0.00 | 0.00 | 0.00 | 78 | 1014.1 |
| 20260510090213 | 59 | 312 | 0.9 | 3.5 | 0.00 | 0.00 | 0.00 | 78 | 1014.1 |
| 20260510090111 | 59 | 313 | 0.9 | 3.5 | 0.00 | 0.00 | 0.00 | 78 | 1014.1 |
| 20260510090011 | 59 | 277 | 0.9 | 1.7 | 0.00 | 0.00 | 0.00 | 78 | 1014.2 |
| 20260510085912 | 59 | 277 | 0.9 | 1.7 | 0.00 | 0.00 | 0.00 | 78 | 1014.1 |
| 20260510085811 | 59 | 277 | 0.0 | 1.7 | 0.00 | 0.00 | 0.00 | 78 | 1014.2 |
| 20260510085712 | 59 | 277 | 0.0 | 1.7 | 0.00 | 0.00 | 0.00 | 78 | 1014.2 |
| 20260510085609 | 59 | 277 | 0.0 | 1.7 | 0.00 | 0.00 | 0.00 | 78 | 1014.1 |
| 20260510085507 | 59 | 277 | 0.0 | 1.7 | 0.00 | 0.00 | 0.00 | 77 | 1014.1 |
| 20260510085408 | 59 | 277 | 0.0 | 1.7 | 0.00 | 0.00 | 0.00 | 77 | 1014.1 |
| 20260510085306 | 59 | 274 | 0.0 | 0.0 | 0.00 | 0.00 | 0.00 | 78 | 1014.1 |
| 20260510085203 | 59 | 274 | 0.0 | 0.0 | 0.00 | 0.00 | 0.00 | 77 | 1014.1 |
| 20260510085104 | 59 | 274 | 0.0 | 0.0 | 0.00 | 0.00 | 0.00 | 77 | 1014.1 |
| 20260510085000 | 59 | 274 | 0.0 | 0.0 | 0.00 | 0.00 | 0.00 | 77 | 1014.1 |
| 20260510084902 | 59 | 273 | 0.0 | 0.0 | 0.00 | 0.00 | 0.00 | 77 | 1014.1 |
| 20260510084801 | 59 | 273 | 0.0 | 0.0 | 0.00 | 0.00 | 0.00 | 77 | 1014.1 |
| 20260510084701 | 59 | 273 | 0.0 | 0.0 | 0.00 | 0.00 | 0.00 | 77 | 1014.1 |
| 20260510084601 | 59 | 273 | 0.0 | 0.0 | 0.00 | 0.00 | 0.00 | 77 | 1014.2 |
| 20260510084501 | 59 | 273 | 0.0 | 0.0 | 0.00 | 0.00 | 0.00 | 77 | 1014.1 |
| 20260510084401 | 59 | 273 | 0.0 | 0.0 | 0.00 | 0.00 | 0.00 | 77 | 1014.1 |
| 20260510084302 | 59 | 273 | 0.0 | 0.0 | 0.00 | 0.00 | 0.00 | 77 | 1014.1 |
| 20260510084202 | 59 | 273 | 0.0 | 0.0 | 0.00 | 0.00 | 0.00 | 77 | 1014.1 |
| 20260510084100 | 59 | 273 | 0.0 | 0.0 | 0.00 | 0.00 | 0.00 | 76 | 1014.1 |
| 20260510083959 | 60 | 273 | 0.0 | 0.0 | 0.00 | 0.00 | 0.00 | 76 | 1014.0 |
| 20260510083856 | 60 | 273 | 0.0 | 0.0 | 0.00 | 0.00 | 0.00 | 76 | 1014.1 |
| 20260510083758 | 60 | 273 | 0.0 | 0.0 | 0.00 | 0.00 | 0.00 | 76 | 1014.0 |
| 20260510083655 | 60 | 273 | 0.0 | 0.0 | 0.00 | 0.00 | 0.00 | 76 | 1014.0 |
| 20260510083552 | 60 | 274 | 0.0 | 0.0 | 0.00 | 0.00 | 0.00 | 76 | 1014.0 |
| 20260510083454 | 60 | 274 | 0.0 | 0.0 | 0.00 | 0.00 | 0.00 | 76 | 1014.0 |
| 20260510083351 | 60 | 274 | 0.0 | 0.0 | 0.00 | 0.00 | 0.00 | 76 | 1014.0 |
| 20260510083252 | 60 | 274 | 0.0 | 0.0 | 0.00 | 0.00 | 0.00 | 76 | 1014.0 |
| 20260510083151 | 60 | 274 | 0.0 | 0.0 | 0.00 | 0.00 | 0.00 | 76 | 1014.0 |
| 20260510083051 | 60 | 274 | 0.0 | 0.0 | 0.00 | 0.00 | 0.00 | 76 | 1014.0 |
| 20260510082946 | 60 | 274 | 0.0 | 0.0 | 0.00 | 0.00 | 0.00 | 76 | 1014.0 |
| 20260510082845 | 60 | 274 | 0.0 | 0.0 | 0.00 | 0.00 | 0.00 | 76 | 1014.0 |
| 20260510082745 | 60 | 274 | 0.0 | 0.0 | 0.00 | 0.00 | 0.00 | 76 | 1013.9 |
| 20260510082645 | 60 | 274 | 0.0 | 0.9 | 0.00 | 0.00 | 0.00 | 76 | 1013.9 |
| 20260510082546 | 60 | 274 | 0.0 | 0.9 | 0.00 | 0.00 | 0.00 | 76 | 1014.0 |
| 20260510082445 | 60 | 274 | 0.0 | 0.9 | 0.00 | 0.00 | 0.00 | 76 | 1013.8 |
| 20260510082342 | 60 | 274 | 0.0 | 0.9 | 0.00 | 0.00 | 0.00 | 76 | 1013.9 |
| 20260510082244 | 60 | 274 | 0.0 | 0.9 | 0.00 | 0.00 | 0.00 | 75 | 1013.8 |
| 20260510082142 | 60 | 274 | 0.0 | 1.7 | 0.00 | 0.00 | 0.00 | 75 | 1013.9 |
| 20260510082040 | 60 | 274 | 0.0 | 1.7 | 0.00 | 0.00 | 0.00 | 75 | 1013.8 |
| 20260510081939 | 60 | 274 | 0.0 | 1.7 | 0.00 | 0.00 | 0.00 | 75 | 1013.8 |
| 20260510081838 | 60 | 274 | 0.0 | 1.7 | 0.00 | 0.00 | 0.00 | 75 | 1013.8 |
| 20260510081737 | 60 | 274 | 0.0 | 2.6 | 0.00 | 0.00 | 0.00 | 75 | 1013.8 |
| 20260510081636 | 60 | 273 | 0.0 | 2.6 | 0.00 | 0.00 | 0.00 | 76 | 1013.8 |
| 20260510081533 | 60 | 273 | 0.0 | 2.6 | 0.00 | 0.00 | 0.00 | 75 | 1013.8 |
| 20260510081434 | 60 | 273 | 0.0 | 2.6 | 0.00 | 0.00 | 0.00 | 75 | 1013.7 |
| 20260510081332 | 60 | 273 | 0.0 | 2.6 | 0.00 | 0.00 | 0.00 | 75 | 1013.7 |
| 20260510081231 | 60 | 273 | 0.0 | 2.6 | 0.00 | 0.00 | 0.00 | 75 | 1013.8 |
| 20260510081128 | 60 | 275 | 0.9 | 2.6 | 0.00 | 0.00 | 0.00 | 75 | 1013.7 |
| 20260510081030 | 60 | 275 | 0.9 | 2.6 | 0.00 | 0.00 | 0.00 | 75 | 1013.7 |
| 20260510080928 | 60 | 275 | 0.9 | 2.6 | 0.00 | 0.00 | 0.00 | 75 | 1013.7 |
| 20260510080830 | 60 | 275 | 0.9 | 2.6 | 0.00 | 0.00 | 0.00 | 75 | 1013.7 |
| 20260510080728 | 60 | 275 | 0.9 | 2.6 | 0.00 | 0.00 | 0.00 | 75 | 1013.5 |
| 20260510080628 | 60 | 275 | 0.9 | 2.6 | 0.00 | 0.00 | 0.00 | 75 | 1013.7 |
| 20260510080527 | 60 | 275 | 0.9 | 2.6 | 0.00 | 0.00 | 0.00 | 75 | 1013.7 |
| 20260510080427 | 60 | 275 | 0.9 | 2.6 | 0.00 | 0.00 | 0.00 | 75 | 1013.5 |
| 20260510080326 | 60 | 277 | 0.9 | 2.6 | 0.00 | 0.00 | 0.00 | 75 | 1013.5 |
| 20260510080226 | 61 | 277 | 0.9 | 2.6 | 0.00 | 0.00 | 0.00 | 75 | 1013.5 |
| 20260510080125 | 61 | 263 | 0.9 | 2.6 | 0.00 | 0.00 | 0.00 | 74 | 1013.5 |
| 20260510080026 | 61 | 263 | 0.9 | 2.6 | 0.00 | 0.00 | 0.00 | 74 | 1013.5 |
| 20260510075926 | 61 | 263 | 0.9 | 2.6 | 0.00 | 0.00 | 0.00 | 74 | 1013.5 |
| 20260510075825 | 61 | 280 | 0.9 | 2.6 | 0.00 | 0.00 | 0.00 | 74 | 1013.4 |
| 20260510075724 | 61 | 313 | 0.9 | 2.6 | 0.00 | 0.00 | 0.00 | 74 | 1013.5 |
| 20260510075623 | 61 | 313 | 0.0 | 2.6 | 0.00 | 0.00 | 0.00 | 74 | 1013.4 |
| 20260510075523 | 61 | 318 | 0.0 | 2.6 | 0.00 | 0.00 | 0.00 | 74 | 1013.4 |
| 20260510075422 | 61 | 318 | 0.9 | 2.6 | 0.00 | 0.00 | 0.00 | 74 | 1013.4 |
| 20260510075319 | 61 | 318 | 0.9 | 3.5 | 0.00 | 0.00 | 0.00 | 74 | 1013.4 |
| 20260510075220 | 61 | 319 | 0.9 | 3.5 | 0.00 | 0.00 | 0.00 | 74 | 1013.4 |
| 20260510075116 | 61 | 278 | 0.0 | 3.5 | 0.00 | 0.00 | 0.00 | 74 | 1013.4 |
| 20260510075016 | 61 | 301 | 0.9 | 3.5 | 0.00 | 0.00 | 0.00 | 74 | 1013.4 |
| 20260510074915 | 61 | 301 | 0.9 | 3.5 | 0.00 | 0.00 | 0.00 | 74 | 1013.4 |
| 20260510074814 | 61 | 301 | 0.9 | 3.5 | 0.00 | 0.00 | 0.00 | 74 | 1013.4 |
| 20260510074714 | 61 | 299 | 0.9 | 3.5 | 0.00 | 0.00 | 0.00 | 74 | 1013.4 |
| 20260510074612 | 61 | 299 | 0.9 | 4.3 | 0.00 | 0.00 | 0.00 | 74 | 1013.4 |
| 20260510074512 | 61 | 300 | 1.7 | 4.3 | 0.00 | 0.00 | 0.00 | 73 | 1013.3 |
| 20260510074409 | 61 | 300 | 1.7 | 4.3 | 0.00 | 0.00 | 0.00 | 74 | 1013.4 |
| 20260510074309 | 61 | 298 | 1.7 | 4.3 | 0.00 | 0.00 | 0.00 | 74 | 1013.4 |
| 20260510074209 | 61 | 302 | 1.7 | 4.3 | 0.00 | 0.00 | 0.00 | 74 | 1013.4 |
| 20260510074110 | 61 | 302 | 2.6 | 4.3 | 0.00 | 0.00 | 0.00 | 74 | 1013.3 |
| 20260510074007 | 62 | 310 | 2.6 | 4.3 | 0.00 | 0.00 | 0.00 | 74 | 1013.4 |
| 20260510073907 | 62 | 304 | 2.6 | 4.3 | 0.00 | 0.00 | 0.00 | 73 | 1013.3 |
| 20260510073807 | 62 | 306 | 2.6 | 5.2 | 0.00 | 0.00 | 0.00 | 73 | 1013.3 |
| 20260510073704 | 62 | 302 | 2.6 | 5.2 | 0.00 | 0.00 | 0.00 | 73 | 1013.3 |
| 20260510073606 | 62 | 302 | 2.6 | 5.2 | 0.00 | 0.00 | 0.00 | 73 | 1013.3 |
| 20260510073506 | 62 | 304 | 3.5 | 5.2 | 0.00 | 0.00 | 0.00 | 73 | 1013.3 |
| 20260510073406 | 62 | 301 | 3.5 | 5.2 | 0.00 | 0.00 | 0.00 | 73 | 1013.4 |
| 20260510073305 | 62 | 304 | 3.5 | 5.2 | 0.00 | 0.00 | 0.00 | 73 | 1013.3 |
| 20260510073205 | 62 | 309 | 3.5 | 5.2 | 0.00 | 0.00 | 0.00 | 73 | 1013.3 |
| 20260510073106 | 62 | 298 | 3.5 | 5.2 | 0.00 | 0.00 | 0.00 | 73 | 1013.3 |
| 20260510073001 | 62 | 299 | 3.5 | 5.2 | 0.00 | 0.00 | 0.00 | 73 | 1013.3 |
| 20260510072900 | 62 | 273 | 3.5 | 5.2 | 0.00 | 0.00 | 0.00 | 73 | 1013.2 |
| 20260510072801 | 62 | 313 | 3.5 | 7.0 | 0.00 | 0.00 | 0.00 | 73 | 1013.2 |
| 20260510072700 | 62 | 291 | 3.5 | 7.0 | 0.00 | 0.00 | 0.00 | 73 | 1013.2 |
| 20260510072602 | 62 | 299 | 4.3 | 7.0 | 0.00 | 0.00 | 0.00 | 72 | 1013.2 |
| 20260510072501 | 62 | 291 | 4.3 | 7.0 | 0.00 | 0.00 | 0.00 | 72 | 1013.3 |
| 20260510072402 | 62 | 306 | 4.3 | 7.0 | 0.00 | 0.00 | 0.00 | 72 | 1013.2 |
| 20260510072300 | 62 | 290 | 4.3 | 7.0 | 0.00 | 0.00 | 0.00 | 72 | 1013.3 |
| 20260510072202 | 62 | 314 | 4.3 | 7.0 | 0.00 | 0.00 | 0.00 | 73 | 1013.3 |
| 20260510072100 | 62 | 296 | 4.3 | 7.0 | 0.00 | 0.00 | 0.00 | 73 | 1013.2 |
| 20260510072002 | 62 | 273 | 4.3 | 7.0 | 0.00 | 0.00 | 0.00 | 73 | 1013.2 |
| 20260510071900 | 62 | 303 | 4.3 | 7.0 | 0.00 | 0.00 | 0.00 | 73 | 1013.3 |
| 20260510071801 | 62 | 300 | 3.5 | 7.0 | 0.00 | 0.00 | 0.00 | 73 | 1013.2 |
| 20260510071701 | 62 | 295 | 3.5 | 7.0 | 0.00 | 0.00 | 0.00 | 73 | 1013.3 |
| 20260510071601 | 62 | 287 | 3.5 | 7.0 | 0.00 | 0.00 | 0.00 | 73 | 1013.2 |
| 20260510071501 | 62 | 311 | 3.5 | 7.0 | 0.00 | 0.00 | 0.00 | 73 | 1013.3 |
| 20260510071401 | 62 | 301 | 3.5 | 6.1 | 0.00 | 0.00 | 0.00 | 73 | 1013.2 |
| 20260510071258 | 61 | 304 | 3.5 | 6.1 | 0.00 | 0.00 | 0.00 | 73 | 1013.2 |
| 20260510071155 | 61 | 294 | 3.5 | 6.1 | 0.00 | 0.00 | 0.00 | 73 | 1013.3 |
| 20260510071056 | 61 | 314 | 3.5 | 7.0 | 0.00 | 0.00 | 0.00 | 73 | 1013.2 |
| 20260510070956 | 61 | 301 | 3.5 | 7.0 | 0.00 | 0.00 | 0.00 | 73 | 1013.2 |
| 20260510070855 | 61 | 307 | 3.5 | 7.0 | 0.00 | 0.00 | 0.00 | 74 | 1013.2 |
| 20260510070748 | 61 | 303 | 2.6 | 7.0 | 0.00 | 0.00 | 0.00 | 74 | 1013.3 |
| 20260510070649 | 61 | 309 | 2.6 | 7.0 | 0.00 | 0.00 | 0.00 | 74 | 1013.3 |
| 20260510070549 | 61 | 302 | 2.6 | 7.0 | 0.00 | 0.00 | 0.00 | 74 | 1013.3 |
| 20260510070450 | 61 | 300 | 2.6 | 7.0 | 0.00 | 0.00 | 0.00 | 74 | 1013.3 |
| 20260510070349 | 61 | 295 | 2.6 | 7.0 | 0.00 | 0.00 | 0.00 | 74 | 1013.4 |
| 20260510070246 | 61 | 291 | 2.6 | 7.0 | 0.00 | 0.00 | 0.00 | 74 | 1013.3 |
| 20260510070142 | 61 | 294 | 1.7 | 7.0 | 0.00 | 0.00 | 0.00 | 74 | 1013.4 |
| 20260510070044 | 60 | 293 | 1.7 | 3.5 | 0.00 | 0.00 | 0.00 | 74 | 1013.4 |
| 20260510065942 | 60 | 280 | 1.7 | 3.5 | 0.00 | 0.00 | 0.00 | 75 | 1013.4 |
| 20260510065843 | 60 | 271 | 1.7 | 3.5 | 0.00 | 0.00 | 0.00 | 75 | 1013.3 |
| 20260510065744 | 60 | 296 | 1.7 | 4.3 | 0.00 | 0.00 | 0.00 | 74 | 1013.3 |
| 20260510065641 | 60 | 278 | 1.7 | 4.3 | 0.00 | 0.00 | 0.00 | 75 | 1013.3 |
| 20260510065539 | 60 | 276 | 1.7 | 4.3 | 0.00 | 0.00 | 0.00 | 75 | 1013.3 |
| 20260510065439 | 60 | 266 | 1.7 | 4.3 | 0.00 | 0.00 | 0.00 | 75 | 1013.3 |
| 20260510065339 | 60 | 261 | 1.7 | 4.3 | 0.00 | 0.00 | 0.00 | 75 | 1013.3 |
| 20260510065240 | 60 | 278 | 1.7 | 4.3 | 0.00 | 0.00 | 0.00 | 75 | 1013.2 |
| 20260510065138 | 60 | 286 | 1.7 | 4.3 | 0.00 | 0.00 | 0.00 | 75 | 1013.2 |
| 20260510065038 | 60 | 290 | 1.7 | 4.3 | 0.00 | 0.00 | 0.00 | 75 | 1013.3 |
| 20260510064937 | 60 | 302 | 1.7 | 4.3 | 0.00 | 0.00 | 0.00 | 75 | 1013.3 |
| 20260510064838 | 60 | 309 | 0.9 | 4.3 | 0.00 | 0.00 | 0.00 | 75 | 1013.3 |
| 20260510064734 | 60 | 269 | 0.9 | 3.5 | 0.00 | 0.00 | 0.00 | 75 | 1013.2 |
| 20260510064633 | 60 | 263 | 0.9 | 2.6 | 0.00 | 0.00 | 0.00 | 76 | 1013.3 |
| 20260510064533 | 60 | 262 | 0.9 | 2.6 | 0.00 | 0.00 | 0.00 | 76 | 1013.3 |
| 20260510064432 | 60 | 271 | 0.9 | 2.6 | 0.00 | 0.00 | 0.00 | 76 | 1013.3 |
| 20260510064330 | 60 | 271 | 0.9 | 2.6 | 0.00 | 0.00 | 0.00 | 76 | 1013.2 |
| 20260510064230 | 60 | 271 | 0.9 | 2.6 | 0.00 | 0.00 | 0.00 | 76 | 1013.4 |
| 20260510064131 | 60 | 271 | 0.9 | 2.6 | 0.00 | 0.00 | 0.00 | 76 | 1013.3 |
| 20260510064030 | 60 | 269 | 0.9 | 2.6 | 0.00 | 0.00 | 0.00 | 76 | 1013.3 |
| 20260510063929 | 60 | 269 | 0.9 | 2.6 | 0.00 | 0.00 | 0.00 | 77 | 1013.3 |
| 20260510063828 | 60 | 269 | 0.0 | 2.6 | 0.00 | 0.00 | 0.00 | 76 | 1013.4 |
| 20260510063728 | 60 | 269 | 0.0 | 2.6 | 0.00 | 0.00 | 0.00 | 76 | 1013.3 |
| 20260510063625 | 60 | 269 | 0.0 | 1.7 | 0.00 | 0.00 | 0.00 | 77 | 1013.3 |
| 20260510063524 | 60 | 269 | 0.0 | 1.7 | 0.00 | 0.00 | 0.00 | 77 | 1013.4 |
| 20260510063423 | 60 | 269 | 0.0 | 0.0 | 0.00 | 0.00 | 0.00 | 77 | 1013.3 |
| 20260510063323 | 60 | 269 | 0.0 | 0.0 | 0.00 | 0.00 | 0.00 | 77 | 1013.4 |
| 20260510063220 | 60 | 269 | 0.0 | 0.0 | 0.00 | 0.00 | 0.00 | 77 | 1013.3 |
| 20260510063120 | 60 | 269 | 0.0 | 0.0 | 0.00 | 0.00 | 0.00 | 77 | 1013.4 |
| 20260510063015 | 60 | 269 | 0.0 | 0.9 | 0.00 | 0.00 | 0.00 | 77 | 1013.3 |
| 20260510062912 | 60 | 269 | 0.0 | 0.9 | 0.00 | 0.00 | 0.00 | 77 | 1013.4 |
| 20260510062813 | 60 | 269 | 0.0 | 0.9 | 0.00 | 0.00 | 0.00 | 77 | 1013.3 |
| 20260510062712 | 60 | 269 | 0.0 | 0.9 | 0.00 | 0.00 | 0.00 | 77 | 1013.4 |
| 20260510062609 | 60 | 269 | 0.0 | 0.9 | 0.00 | 0.00 | 0.00 | 77 | 1013.4 |
| 20260510062503 | 60 | 269 | 0.0 | 0.9 | 0.00 | 0.00 | 0.00 | 77 | 1013.3 |
| 20260510062404 | 60 | 269 | 0.0 | 0.9 | 0.00 | 0.00 | 0.00 | 78 | 1013.4 |
| 20260510062306 | 60 | 269 | 0.0 | 3.5 | 0.00 | 0.00 | 0.00 | 77 | 1013.4 |
| 20260510062204 | 60 | 269 | 0.0 | 3.5 | 0.00 | 0.00 | 0.00 | 78 | 1013.4 |
| 20260510062104 | 60 | 269 | 0.0 | 3.5 | 0.00 | 0.00 | 0.00 | 78 | 1013.3 |
| 20260510061957 | 60 | 269 | 0.0 | 3.5 | 0.00 | 0.00 | 0.00 | 78 | 1013.4 |
| 20260510061856 | 60 | 269 | 0.0 | 3.5 | 0.00 | 0.00 | 0.00 | 78 | 1013.4 |
| 20260510061757 | 60 | 269 | 0.0 | 3.5 | 0.00 | 0.00 | 0.00 | 78 | 1013.4 |
| 20260510061657 | 60 | 269 | 0.0 | 3.5 | 0.00 | 0.00 | 0.00 | 77 | 1013.4 |
| 20260510061557 | 60 | 269 | 0.0 | 3.5 | 0.00 | 0.00 | 0.00 | 78 | 1013.4 |
| 20260510061457 | 60 | 269 | 0.0 | 3.5 | 0.00 | 0.00 | 0.00 | 77 | 1013.4 |
| 20260510061357 | 60 | 269 | 0.0 | 3.5 | 0.00 | 0.00 | 0.00 | 77 | 1013.4 |
| 20260510061258 | 60 | 240 | 0.9 | 2.6 | 0.00 | 0.00 | 0.00 | 78 | 1013.5 |
| 20260510061156 | 60 | 240 | 0.0 | 2.6 | 0.00 | 0.00 | 0.00 | 77 | 1013.4 |
| 20260510061056 | 60 | 240 | 0.9 | 2.6 | 0.00 | 0.00 | 0.00 | 77 | 1013.5 |
| 20260510060956 | 60 | 240 | 0.9 | 2.6 | 0.00 | 0.00 | 0.00 | 77 | 1013.5 |
| 20260510060856 | 60 | 282 | 0.9 | 2.6 | 0.00 | 0.00 | 0.00 | 78 | 1013.5 |
| 20260510060757 | 60 | 282 | 0.9 | 3.5 | 0.00 | 0.00 | 0.00 | 78 | 1013.5 |
| 20260510060655 | 60 | 282 | 0.9 | 3.5 | 0.00 | 0.00 | 0.00 | 78 | 1013.5 |
| 20260510060556 | 60 | 282 | 0.9 | 3.5 | 0.00 | 0.00 | 0.00 | 78 | 1013.5 |
| 20260510060452 | 60 | 283 | 0.9 | 3.5 | 0.00 | 0.00 | 0.00 | 78 | 1013.5 |
| 20260510060351 | 60 | 284 | 0.9 | 3.5 | 0.00 | 0.00 | 0.00 | 78 | 1013.4 |
| 20260510060250 | 60 | 283 | 0.9 | 3.5 | 0.00 | 0.00 | 0.00 | 78 | 1013.4 |
| 20260510060149 | 60 | 281 | 0.9 | 3.5 | 0.00 | 0.00 | 0.00 | 78 | 1013.4 |
| 20260510060049 | 60 | 281 | 0.9 | 3.5 | 0.00 | 0.00 | 0.00 | 78 | 1013.4 |
| 20260510055950 | 60 | 293 | 0.0 | 3.5 | 0.00 | 0.00 | 0.00 | 78 | 1013.4 |
| 20260510055849 | 60 | 294 | 0.0 | 3.5 | 0.00 | 0.00 | 0.00 | 79 | 1013.5 |
| 20260510055745 | 60 | 287 | 0.0 | 1.7 | 0.00 | 0.00 | 0.00 | 79 | 1013.4 |
| 20260510055644 | 60 | 287 | 0.0 | 1.7 | 0.00 | 0.00 | 0.00 | 79 | 1013.5 |
| 20260510055542 | 60 | 287 | 0.0 | 1.7 | 0.00 | 0.00 | 0.00 | 79 | 1013.5 |
| 20260510055443 | 60 | 287 | 0.0 | 1.7 | 0.00 | 0.00 | 0.00 | 79 | 1013.5 |
| 20260510055344 | 60 | 287 | 0.0 | 1.7 | 0.00 | 0.00 | 0.00 | 78 | 1013.7 |
| 20260510055244 | 60 | 287 | 0.0 | 1.7 | 0.00 | 0.00 | 0.00 | 78 | 1013.5 |
| 20260510055142 | 60 | 287 | 0.0 | 3.5 | 0.00 | 0.00 | 0.00 | 78 | 1013.8 |
| 20260510055042 | 60 | 284 | 0.0 | 3.5 | 0.00 | 0.00 | 0.00 | 78 | 1013.7 |
| 20260510054939 | 60 | 281 | 0.0 | 3.5 | 0.00 | 0.00 | 0.00 | 78 | 1013.7 |
| 20260510054839 | 60 | 281 | 0.0 | 3.5 | 0.00 | 0.00 | 0.00 | 78 | 1013.7 |
| 20260510054739 | 60 | 281 | 0.0 | 3.5 | 0.00 | 0.00 | 0.00 | 79 | 1013.5 |
| 20260510054639 | 60 | 280 | 0.0 | 3.5 | 0.00 | 0.00 | 0.00 | 79 | 1013.7 |
| 20260510054538 | 60 | 281 | 0.0 | 3.5 | 0.00 | 0.00 | 0.00 | 79 | 1013.7 |
| 20260510054438 | 60 | 281 | 0.0 | 3.5 | 0.00 | 0.00 | 0.00 | 79 | 1013.5 |
| 20260510054340 | 60 | 281 | 0.0 | 3.5 | 0.00 | 0.00 | 0.00 | 79 | 1013.5 |
| 20260510054238 | 60 | 277 | 0.0 | 3.5 | 0.00 | 0.00 | 0.00 | 79 | 1013.5 |
| 20260510054137 | 60 | 230 | 0.0 | 2.6 | 0.00 | 0.00 | 0.00 | 79 | 1013.5 |
| 20260510054035 | 60 | 223 | 0.0 | 2.6 | 0.00 | 0.00 | 0.00 | 79 | 1013.5 |
| 20260510053936 | 60 | 223 | 0.0 | 2.6 | 0.00 | 0.00 | 0.00 | 79 | 1013.5 |
| 20260510053834 | 60 | 223 | 0.0 | 2.6 | 0.00 | 0.00 | 0.00 | 80 | 1013.5 |
| 20260510053733 | 60 | 223 | 0.0 | 2.6 | 0.00 | 0.00 | 0.00 | 80 | 1014.0 |
| 20260510053631 | 60 | 223 | 0.0 | 2.6 | 0.00 | 0.00 | 0.00 | 80 | 1013.5 |
| 20260510053532 | 60 | 223 | 0.0 | 2.6 | 0.00 | 0.00 | 0.00 | 80 | 1013.5 |
| 20260510053428 | 60 | 223 | 0.0 | 2.6 | 0.00 | 0.00 | 0.00 | 80 | 1013.4 |
| 20260510053330 | 60 | 223 | 0.0 | 3.5 | 0.00 | 0.00 | 0.00 | 80 | 1013.5 |
| 20260510053227 | 60 | 223 | 0.0 | 3.5 | 0.00 | 0.00 | 0.00 | 80 | 1013.5 |
| 20260510053125 | 60 | 223 | 0.9 | 3.5 | 0.00 | 0.00 | 0.00 | 80 | 1013.5 |
| 20260510053025 | 60 | 223 | 0.9 | 3.5 | 0.00 | 0.00 | 0.00 | 80 | 1013.5 |
| 20260510052924 | 60 | 223 | 0.9 | 3.5 | 0.00 | 0.00 | 0.00 | 80 | 1013.5 |
| 20260510052826 | 60 | 223 | 0.9 | 3.5 | 0.00 | 0.00 | 0.00 | 80 | 1013.5 |
| 20260510052724 | 60 | 223 | 0.9 | 3.5 | 0.00 | 0.00 | 0.00 | 80 | 1013.4 |
| 20260510052621 | 60 | 223 | 0.9 | 3.5 | 0.00 | 0.00 | 0.00 | 80 | 1013.5 |
| 20260510052515 | 60 | 223 | 0.9 | 3.5 | 0.00 | 0.00 | 0.00 | 80 | 1013.5 |
| 20260510052414 | 60 | 221 | 0.9 | 3.5 | 0.00 | 0.00 | 0.00 | 79 | 1013.5 |
| 20260510052315 | 60 | 237 | 0.9 | 3.5 | 0.00 | 0.00 | 0.00 | 80 | 1013.5 |
| 20260510052215 | 60 | 330 | 0.9 | 3.5 | 0.00 | 0.00 | 0.00 | 80 | 1013.5 |
| 20260510052115 | 60 | 290 | 0.0 | 3.5 | 0.00 | 0.00 | 0.00 | 80 | 1013.4 |
| 20260510052014 | 60 | 290 | 0.0 | 3.5 | 0.00 | 0.00 | 0.00 | 80 | 1013.5 |
| 20260510051913 | 60 | 290 | 0.0 | 3.5 | 0.00 | 0.00 | 0.00 | 80 | 1013.5 |
| 20260510051812 | 60 | 290 | 0.0 | 3.5 | 0.00 | 0.00 | 0.00 | 80 | 1013.5 |
| 20260510051712 | 60 | 290 | 0.0 | 3.5 | 0.00 | 0.00 | 0.00 | 80 | 1013.5 |
| 20260510051610 | 60 | 299 | 0.0 | 3.5 | 0.00 | 0.00 | 0.00 | 80 | 1013.4 |
| 20260510051505 | 60 | 252 | 0.0 | 3.5 | 0.00 | 0.00 | 0.00 | 81 | 1013.4 |
| 20260510051405 | 60 | 264 | 0.0 | 1.7 | 0.00 | 0.00 | 0.00 | 81 | 1013.4 |
| 20260510051303 | 60 | 264 | 0.0 | 1.7 | 0.00 | 0.00 | 0.00 | 81 | 1013.4 |
| 20260510051203 | 60 | 264 | 0.0 | 1.7 | 0.00 | 0.00 | 0.00 | 82 | 1013.5 |
| 20260510051104 | 60 | 264 | 0.0 | 1.7 | 0.00 | 0.00 | 0.00 | 82 | 1013.7 |
| 20260510051002 | 60 | 264 | 0.9 | 1.7 | 0.00 | 0.00 | 0.00 | 82 | 1013.5 |
| 20260510050902 | 60 | 264 | 0.9 | 1.7 | 0.00 | 0.00 | 0.00 | 82 | 1013.7 |
| 20260510050802 | 60 | 263 | 0.9 | 1.7 | 0.00 | 0.00 | 0.00 | 83 | 1013.7 |
| 20260510050703 | 60 | 263 | 0.9 | 1.7 | 0.00 | 0.00 | 0.00 | 83 | 1013.7 |
| 20260510050603 | 60 | 263 | 0.9 | 1.7 | 0.00 | 0.00 | 0.00 | 83 | 1013.7 |
| 20260510050502 | 60 | 263 | 0.9 | 1.7 | 0.00 | 0.00 | 0.00 | 83 | 1013.7 |
| 20260510050403 | 60 | 263 | 0.9 | 1.7 | 0.00 | 0.00 | 0.00 | 83 | 1013.7 |
| 20260510050302 | 60 | 263 | 0.9 | 1.7 | 0.00 | 0.00 | 0.00 | 84 | 1013.8 |
| 20260510050201 | 60 | 263 | 0.9 | 1.7 | 0.00 | 0.00 | 0.00 | 84 | 1013.7 |
| 20260510050058 | 60 | 263 | 0.9 | 1.7 | 0.00 | 0.00 | 0.00 | 84 | 1013.8 |
| 20260510045959 | 60 | 263 | 0.9 | 1.7 | 0.00 | 0.00 | 0.00 | 84 | 1013.8 |
| 20260510045859 | 60 | 263 | 0.0 | 1.7 | 0.00 | 0.00 | 0.00 | 84 | 1013.9 |
| 20260510045759 | 60 | 263 | 0.0 | 1.7 | 0.00 | 0.00 | 0.00 | 85 | 1013.8 |
| 20260510045659 | 60 | 263 | 0.0 | 1.7 | 0.00 | 0.00 | 0.00 | 85 | 1013.8 |
| 20260510045559 | 60 | 263 | 0.0 | 1.7 | 0.00 | 0.00 | 0.00 | 85 | 1013.9 |
| 20260510045500 | 60 | 263 | 0.0 | 1.7 | 0.00 | 0.00 | 0.00 | 85 | 1013.8 |
| 20260510045358 | 60 | 263 | 0.0 | 1.7 | 0.00 | 0.00 | 0.00 | 86 | 1013.7 |
| 20260510045258 | 60 | 262 | 0.0 | 1.7 | 0.00 | 0.00 | 0.00 | 86 | 1013.7 |
| 20260510045159 | 60 | 262 | 0.0 | 1.7 | 0.00 | 0.00 | 0.00 | 86 | 1013.7 |
| 20260510045058 | 60 | 262 | 0.0 | 1.7 | 0.00 | 0.00 | 0.00 | 86 | 1013.5 |
| 20260510044958 | 60 | 261 | 0.0 | 1.7 | 0.00 | 0.00 | 0.00 | 87 | 1013.5 |
| 20260510044900 | 61 | 261 | 0.0 | 1.7 | 0.00 | 0.00 | 0.00 | 87 | 1013.7 |
| 20260510044759 | 61 | 261 | 0.0 | 1.7 | 0.00 | 0.00 | 0.00 | 87 | 1013.5 |
| 20260510044700 | 61 | 261 | 0.0 | 1.7 | 0.00 | 0.00 | 0.00 | 87 | 1013.7 |
| 20260510044558 | 61 | 261 | 0.0 | 1.7 | 0.00 | 0.00 | 0.00 | 87 | 1013.5 |
| 20260510044500 | 61 | 261 | 0.0 | 1.7 | 0.00 | 0.00 | 0.00 | 87 | 1013.5 |
| 20260510044358 | 61 | 261 | 0.0 | 1.7 | 0.00 | 0.00 | 0.00 | 87 | 1013.7 |
| 20260510044259 | 61 | 261 | 0.0 | 1.7 | 0.00 | 0.00 | 0.00 | 87 | 1013.7 |
| 20260510044200 | 61 | 261 | 0.0 | 1.7 | 0.00 | 0.00 | 0.00 | 87 | 1013.4 |
| 20260510044059 | 61 | 261 | 0.0 | 1.7 | 0.00 | 0.00 | 0.00 | 87 | 1013.5 |
| 20260510043958 | 61 | 261 | 0.0 | 1.7 | 0.00 | 0.00 | 0.00 | 88 | 1013.5 |
| 20260510043859 | 61 | 261 | 0.0 | 1.7 | 0.00 | 0.00 | 0.00 | 88 | 1013.5 |
| 20260510043800 | 61 | 261 | 0.0 | 1.7 | 0.00 | 0.00 | 0.00 | 88 | 1013.4 |
| 20260510043656 | 61 | 261 | 0.9 | 1.7 | 0.00 | 0.00 | 0.00 | 88 | 1013.4 |
| 20260510043554 | 61 | 261 | 0.9 | 1.7 | 0.00 | 0.00 | 0.00 | 88 | 1013.7 |
| 20260510043454 | 61 | 261 | 0.9 | 1.7 | 0.00 | 0.00 | 0.00 | 88 | 1013.7 |
| 20260510043355 | 61 | 261 | 0.9 | 1.7 | 0.00 | 0.00 | 0.00 | 88 | 1013.7 |
| 20260510043255 | 61 | 261 | 0.9 | 1.7 | 0.00 | 0.00 | 0.00 | 88 | 1013.7 |
| 20260510043155 | 61 | 261 | 0.0 | 1.7 | 0.00 | 0.00 | 0.00 | 88 | 1013.8 |
| 20260510043054 | 61 | 261 | 0.0 | 1.7 | 0.00 | 0.00 | 0.00 | 88 | 1013.8 |
| 20260510042955 | 61 | 284 | 0.0 | 1.7 | 0.00 | 0.00 | 0.00 | 88 | 1013.8 |
| 20260510042855 | 61 | 285 | 0.9 | 2.6 | 0.00 | 0.00 | 0.00 | 88 | 1013.8 |
| 20260510042755 | 61 | 285 | 0.0 | 2.6 | 0.00 | 0.00 | 0.00 | 88 | 1013.8 |
| 20260510042656 | 61 | 285 | 0.9 | 2.6 | 0.00 | 0.00 | 0.00 | 87 | 1013.8 |
| 20260510042555 | 61 | 286 | 0.9 | 3.5 | 0.00 | 0.00 | 0.00 | 87 | 1013.8 |
| 20260510042454 | 61 | 286 | 0.9 | 3.5 | 0.00 | 0.00 | 0.00 | 87 | 1013.9 |
| 20260510042354 | 61 | 286 | 0.9 | 3.5 | 0.00 | 0.00 | 0.00 | 88 | 1013.8 |
| 20260510042255 | 61 | 286 | 0.9 | 3.5 | 0.00 | 0.00 | 0.00 | 88 | 1013.8 |
| 20260510042155 | 61 | 286 | 0.9 | 3.5 | 0.00 | 0.00 | 0.00 | 88 | 1013.9 |
| 20260510042055 | 61 | 286 | 0.9 | 3.5 | 0.00 | 0.00 | 0.00 | 88 | 1013.9 |
| 20260510041955 | 61 | 286 | 0.9 | 3.5 | 0.00 | 0.00 | 0.00 | 88 | 1013.8 |
| 20260510041854 | 61 | 240 | 0.9 | 3.5 | 0.00 | 0.00 | 0.00 | 88 | 1013.8 |
| 20260510041756 | 61 | 186 | 0.9 | 3.5 | 0.00 | 0.00 | 0.00 | 88 | 1013.8 |
| 20260510041654 | 61 | 186 | 0.0 | 3.5 | 0.00 | 0.00 | 0.00 | 88 | 1013.7 |
| 20260510041554 | 61 | 196 | 0.0 | 3.5 | 0.00 | 0.00 | 0.00 | 88 | 1013.5 |
| 20260510041455 | 61 | 286 | 0.0 | 1.7 | 0.00 | 0.00 | 0.00 | 88 | 1013.7 |
| 20260510041355 | 61 | 286 | 0.0 | 1.7 | 0.00 | 0.00 | 0.00 | 88 | 1013.7 |
| 20260510041254 | 61 | 286 | 0.0 | 1.7 | 0.00 | 0.00 | 0.00 | 88 | 1013.7 |
| 20260510041156 | 61 | 285 | 0.0 | 1.7 | 0.00 | 0.00 | 0.00 | 88 | 1013.8 |
| 20260510041055 | 61 | 286 | 0.0 | 1.7 | 0.00 | 0.00 | 0.00 | 87 | 1013.7 |
| 20260510040954 | 61 | 315 | 0.0 | 1.7 | 0.00 | 0.00 | 0.00 | 87 | 1013.8 |
| 20260510040856 | 61 | 313 | 0.0 | 1.7 | 0.00 | 0.00 | 0.00 | 87 | 1013.8 |
| 20260510040754 | 61 | 316 | 0.0 | 1.7 | 0.00 | 0.00 | 0.00 | 87 | 1013.9 |
| 20260510040654 | 61 | 182 | 0.0 | 1.7 | 0.00 | 0.00 | 0.00 | 87 | 1013.9 |
| 20260510040554 | 61 | 184 | 0.0 | 1.7 | 0.00 | 0.00 | 0.00 | 87 | 1013.8 |
| 20260510040456 | 61 | 184 | 0.0 | 1.7 | 0.00 | 0.00 | 0.00 | 87 | 1013.8 |
| 20260510040351 | 61 | 184 | 0.0 | 2.6 | 0.00 | 0.00 | 0.00 | 87 | 1013.7 |
| 20260510040250 | 61 | 184 | 0.0 | 2.6 | 0.00 | 0.00 | 0.00 | 87 | 1013.8 |
| 20260510040151 | 61 | 184 | 0.0 | 2.6 | 0.00 | 0.00 | 0.00 | 87 | 1013.7 |
| 20260510040052 | 61 | 184 | 0.9 | 2.6 | 0.00 | 0.00 | 0.00 | 87 | 1013.8 |
| 20260510035952 | 61 | 184 | 0.9 | 2.6 | 0.00 | 0.00 | 0.00 | 87 | 1013.8 |
| 20260510035848 | 61 | 184 | 0.9 | 2.6 | 0.00 | 0.00 | 0.00 | 87 | 1013.8 |
| 20260510035748 | 61 | 184 | 0.0 | 2.6 | 0.00 | 0.00 | 0.00 | 87 | 1013.5 |
| 20260510035646 | 61 | 184 | 0.0 | 2.6 | 0.00 | 0.00 | 0.00 | 87 | 1013.7 |
| 20260510035547 | 61 | 184 | 0.0 | 2.6 | 0.00 | 0.00 | 0.00 | 87 | 1013.7 |
| 20260510035447 | 61 | 186 | 0.0 | 1.7 | 0.00 | 0.00 | 0.00 | 87 | 1013.8 |
| 20260510035348 | 61 | 189 | 0.0 | 1.7 | 0.00 | 0.00 | 0.00 | 87 | 1013.7 |
| 20260510035244 | 61 | 189 | 0.0 | 1.7 | 0.00 | 0.00 | 0.00 | 87 | 1013.7 |
| 20260510035145 | 61 | 189 | 0.0 | 1.7 | 0.00 | 0.00 | 0.00 | 87 | 1013.8 |
| 20260510035042 | 61 | 189 | 0.0 | 1.7 | 0.00 | 0.00 | 0.00 | 87 | 1013.7 |
| 20260510034944 | 61 | 189 | 0.0 | 1.7 | 0.00 | 0.00 | 0.00 | 87 | 1013.7 |
| 20260510034842 | 61 | 190 | 0.0 | 1.7 | 0.00 | 0.00 | 0.00 | 87 | 1013.7 |
| 20260510034739 | 61 | 193 | 0.0 | 1.7 | 0.00 | 0.00 | 0.00 | 87 | 1013.7 |
| 20260510034640 | 61 | 193 | 0.0 | 1.7 | 0.00 | 0.00 | 0.00 | 87 | 1013.8 |
| 20260510034537 | 61 | 193 | 0.0 | 1.7 | 0.00 | 0.00 | 0.00 | 87 | 1013.7 |
| 20260510034438 | 61 | 193 | 0.0 | 1.7 | 0.00 | 0.00 | 0.00 | 87 | 1013.7 |
| 20260510034335 | 61 | 193 | 0.0 | 1.7 | 0.00 | 0.00 | 0.00 | 87 | 1013.7 |
| 20260510034234 | 61 | 193 | 0.9 | 1.7 | 0.00 | 0.00 | 0.00 | 87 | 1013.8 |
| 20260510034131 | 61 | 193 | 0.9 | 1.7 | 0.00 | 0.00 | 0.00 | 87 | 1013.7 |
| 20260510034032 | 61 | 193 | 0.9 | 1.7 | 0.00 | 0.00 | 0.00 | 87 | 1013.8 |
| 20260510033932 | 61 | 193 | 0.9 | 1.7 | 0.00 | 0.00 | 0.00 | 87 | 1013.7 |
| 20260510033832 | 61 | 193 | 0.9 | 1.7 | 0.00 | 0.00 | 0.00 | 87 | 1013.7 |
| 20260510033732 | 61 | 194 | 0.9 | 1.7 | 0.00 | 0.00 | 0.00 | 87 | 1013.7 |
| 20260510033627 | 61 | 194 | 0.9 | 1.7 | 0.00 | 0.00 | 0.00 | 87 | 1013.7 |
| 20260510033526 | 61 | 194 | 0.9 | 1.7 | 0.00 | 0.00 | 0.00 | 87 | 1013.7 |
| 20260510033426 | 61 | 194 | 0.9 | 1.7 | 0.00 | 0.00 | 0.00 | 87 | 1013.7 |
| 20260510033328 | 61 | 194 | 0.9 | 1.7 | 0.00 | 0.00 | 0.00 | 87 | 1013.9 |
| 20260510033225 | 61 | 194 | 0.9 | 1.7 | 0.00 | 0.00 | 0.00 | 87 | 1013.8 |
| 20260510033126 | 61 | 194 | 0.0 | 1.7 | 0.00 | 0.00 | 0.00 | 87 | 1013.7 |
| 20260510033023 | 61 | 194 | 0.0 | 1.7 | 0.00 | 0.00 | 0.00 | 87 | 1013.8 |
| 20260510032924 | 61 | 194 | 0.0 | 1.7 | 0.00 | 0.00 | 0.00 | 87 | 1013.8 |
| 20260510032822 | 61 | 194 | 0.0 | 1.7 | 0.00 | 0.00 | 0.00 | 87 | 1013.8 |
| 20260510032719 | 61 | 194 | 0.0 | 2.6 | 0.00 | 0.00 | 0.00 | 87 | 1013.8 |
| 20260510032615 | 61 | 194 | 0.0 | 2.6 | 0.00 | 0.00 | 0.00 | 87 | 1013.7 |
| 20260510032515 | 61 | 194 | 0.0 | 2.6 | 0.00 | 0.00 | 0.00 | 87 | 1013.8 |
| 20260510032415 | 61 | 194 | 0.0 | 2.6 | 0.00 | 0.00 | 0.00 | 87 | 1013.8 |
| 20260510032315 | 61 | 194 | 0.9 | 2.6 | 0.00 | 0.00 | 0.00 | 87 | 1013.7 |
| 20260510032216 | 61 | 194 | 0.9 | 2.6 | 0.00 | 0.00 | 0.00 | 87 | 1013.8 |
| 20260510032112 | 61 | 194 | 0.9 | 2.6 | 0.00 | 0.00 | 0.00 | 87 | 1013.8 |
| 20260510032012 | 61 | 194 | 0.9 | 2.6 | 0.00 | 0.00 | 0.00 | 87 | 1013.8 |
| 20260510031913 | 61 | 194 | 0.9 | 2.6 | 0.00 | 0.00 | 0.00 | 87 | 1013.8 |
| 20260510031813 | 61 | 196 | 0.9 | 2.6 | 0.00 | 0.00 | 0.00 | 87 | 1013.8 |
| 20260510031712 | 61 | 157 | 0.9 | 1.7 | 0.00 | 0.00 | 0.00 | 87 | 1013.8 |
| 20260510031613 | 61 | 157 | 0.0 | 1.7 | 0.00 | 0.00 | 0.00 | 87 | 1013.8 |
| 20260510031514 | 61 | 157 | 0.0 | 1.7 | 0.00 | 0.00 | 0.00 | 87 | 1013.8 |
| 20260510031410 | 61 | 157 | 0.0 | 1.7 | 0.00 | 0.00 | 0.00 | 87 | 1013.7 |
| 20260510031311 | 61 | 157 | 0.0 | 1.7 | 0.00 | 0.00 | 0.00 | 87 | 1013.8 |
| 20260510031210 | 61 | 186 | 0.0 | 0.0 | 0.00 | 0.00 | 0.00 | 87 | 1013.8 |
| 20260510031112 | 61 | 186 | 0.0 | 0.0 | 0.00 | 0.00 | 0.00 | 87 | 1013.8 |
| 20260510031012 | 61 | 186 | 0.0 | 0.9 | 0.00 | 0.00 | 0.00 | 87 | 1013.8 |
| 20260510030905 | 61 | 186 | 0.0 | 0.9 | 0.00 | 0.00 | 0.00 | 87 | 1013.7 |
| 20260510030805 | 61 | 186 | 0.0 | 0.9 | 0.00 | 0.00 | 0.00 | 87 | 1013.8 |
| 20260510030705 | 61 | 186 | 0.0 | 0.9 | 0.00 | 0.00 | 0.00 | 87 | 1013.8 |
| 20260510030604 | 61 | 186 | 0.0 | 0.9 | 0.00 | 0.00 | 0.00 | 88 | 1013.8 |
| 20260510030505 | 61 | 186 | 0.0 | 0.9 | 0.00 | 0.00 | 0.00 | 88 | 1013.8 |
| 20260510030403 | 61 | 186 | 0.0 | 0.9 | 0.00 | 0.00 | 0.00 | 88 | 1013.8 |
| 20260510030303 | 61 | 186 | 0.0 | 0.9 | 0.00 | 0.00 | 0.00 | 88 | 1013.9 |
| 20260510030204 | 61 | 186 | 0.0 | 0.9 | 0.00 | 0.00 | 0.00 | 88 | 1013.8 |
| 20260510030103 | 61 | 186 | 0.0 | 1.7 | 0.00 | 0.00 | 0.00 | 88 | 1013.9 |
| 20260510030004 | 61 | 186 | 0.0 | 1.7 | 0.00 | 0.00 | 0.00 | 88 | 1013.9 |
| 20260510025904 | 61 | 186 | 0.0 | 1.7 | 0.00 | 0.00 | 0.00 | 88 | 1013.8 |
| 20260510025800 | 61 | 186 | 0.0 | 1.7 | 0.00 | 0.00 | 0.00 | 88 | 1013.9 |
| 20260510025700 | 61 | 186 | 0.0 | 1.7 | 0.00 | 0.00 | 0.00 | 88 | 1013.9 |
| 20260510025601 | 61 | 186 | 0.0 | 1.7 | 0.00 | 0.00 | 0.00 | 88 | 1013.9 |
| 20260510025502 | 61 | 186 | 0.0 | 1.7 | 0.00 | 0.00 | 0.00 | 88 | 1013.9 |
| 20260510025400 | 61 | 186 | 0.0 | 1.7 | 0.00 | 0.00 | 0.00 | 88 | 1013.8 |
| 20260510025256 | 61 | 186 | 0.0 | 1.7 | 0.00 | 0.00 | 0.00 | 88 | 1013.8 |
| 20260510025156 | 61 | 186 | 0.0 | 1.7 | 0.00 | 0.00 | 0.00 | 88 | 1013.9 |
| 20260510025055 | 61 | 186 | 0.0 | 1.7 | 0.00 | 0.00 | 0.00 | 88 | 1013.9 |
| 20260510024953 | 61 | 186 | 0.0 | 1.7 | 0.00 | 0.00 | 0.00 | 88 | 1013.9 |
| 20260510024854 | 61 | 186 | 0.0 | 1.7 | 0.00 | 0.00 | 0.00 | 88 | 1013.9 |
| 20260510024750 | 61 | 186 | 0.0 | 1.7 | 0.00 | 0.00 | 0.00 | 88 | 1013.8 |
| 20260510024652 | 61 | 186 | 0.0 | 1.7 | 0.00 | 0.00 | 0.00 | 88 | 1013.9 |
| 20260510024549 | 61 | 173 | 0.0 | 0.9 | 0.00 | 0.00 | 0.00 | 88 | 1013.9 |
| 20260510024450 | 61 | 173 | 0.0 | 0.9 | 0.00 | 0.00 | 0.00 | 88 | 1013.8 |
| 20260510024348 | 61 | 173 | 0.0 | 0.9 | 0.00 | 0.00 | 0.00 | 88 | 1013.8 |
| 20260510024244 | 61 | 173 | 0.0 | 0.9 | 0.00 | 0.00 | 0.00 | 88 | 1013.8 |
| 20260510024143 | 61 | 173 | 0.0 | 1.7 | 0.00 | 0.00 | 0.00 | 88 | 1013.8 |
| 20260510024043 | 61 | 173 | 0.0 | 1.7 | 0.00 | 0.00 | 0.00 | 88 | 1013.7 |
| 20260510023942 | 61 | 173 | 0.0 | 1.7 | 0.00 | 0.00 | 0.00 | 88 | 1013.7 |
| 20260510023843 | 61 | 173 | 0.0 | 1.7 | 0.00 | 0.00 | 0.00 | 88 | 1013.7 |
| 20260510023742 | 61 | 173 | 0.0 | 1.7 | 0.00 | 0.00 | 0.00 | 88 | 1013.5 |
| 20260510023634 | 62 | 173 | 0.0 | 1.7 | 0.00 | 0.00 | 0.00 | 88 | 1013.7 |
| 20260510023536 | 61 | 173 | 0.0 | 1.7 | 0.00 | 0.00 | 0.00 | 88 | 1013.7 |
| 20260510023436 | 62 | 173 | 0.0 | 1.7 | 0.00 | 0.00 | 0.00 | 88 | 1013.5 |
| 20260510023336 | 62 | 173 | 0.0 | 1.7 | 0.00 | 0.00 | 0.00 | 88 | 1013.5 |
| 20260510023236 | 62 | 173 | 0.0 | 1.7 | 0.00 | 0.00 | 0.00 | 88 | 1013.5 |
| 20260510023130 | 62 | 173 | 0.0 | 1.7 | 0.00 | 0.00 | 0.00 | 88 | 1013.5 |
| 20260510023029 | 62 | 173 | 0.0 | 1.7 | 0.00 | 0.00 | 0.00 | 88 | 1013.7 |
| 20260510022928 | 62 | 173 | 0.0 | 1.7 | 0.00 | 0.00 | 0.00 | 88 | 1013.7 |
| 20260510022830 | 62 | 173 | 0.9 | 2.6 | 0.00 | 0.00 | 0.00 | 88 | 1013.7 |
| 20260510022728 | 62 | 173 | 0.9 | 2.6 | 0.00 | 0.00 | 0.00 | 88 | 1013.7 |
| 20260510022627 | 62 | 175 | 0.9 | 2.6 | 0.00 | 0.00 | 0.00 | 88 | 1013.5 |
| 20260510022526 | 62 | 175 | 0.9 | 2.6 | 0.00 | 0.00 | 0.00 | 88 | 1013.7 |
| 20260510022326 | 62 | 175 | 1.7 | 2.6 | 0.00 | 0.00 | 0.00 | 88 | 1013.5 |
| 20260510022224 | 62 | 175 | 1.7 | 3.5 | 0.00 | 0.00 | 0.00 | 88 | 1013.4 |
| 20260510022124 | 62 | 175 | 1.7 | 4.3 | 0.00 | 0.00 | 0.00 | 88 | 1013.4 |
| 20260510022024 | 62 | 175 | 1.7 | 4.3 | 0.00 | 0.00 | 0.00 | 88 | 1013.4 |
| 20260510021922 | 62 | 175 | 1.7 | 4.3 | 0.00 | 0.00 | 0.00 | 88 | 1013.4 |
| 20260510021823 | 62 | 175 | 1.7 | 4.3 | 0.00 | 0.00 | 0.00 | 88 | 1013.4 |
| 20260510021723 | 62 | 176 | 1.7 | 4.3 | 0.00 | 0.00 | 0.00 | 88 | 1013.4 |
| 20260510021622 | 62 | 176 | 1.7 | 4.3 | 0.00 | 0.00 | 0.00 | 88 | 1013.4 |
| 20260510021522 | 62 | 182 | 1.7 | 4.3 | 0.00 | 0.00 | 0.00 | 88 | 1013.4 |
| 20260510021424 | 62 | 187 | 1.7 | 4.3 | 0.00 | 0.00 | 0.00 | 88 | 1013.4 |
| 20260510021322 | 62 | 187 | 1.7 | 4.3 | 0.00 | 0.00 | 0.00 | 88 | 1013.4 |
| 20260510021223 | 62 | 195 | 1.7 | 4.3 | 0.00 | 0.00 | 0.00 | 88 | 1013.4 |
| 20260510021121 | 62 | 166 | 1.7 | 4.3 | 0.00 | 0.00 | 0.00 | 88 | 1013.4 |
| 20260510021022 | 62 | 165 | 1.7 | 4.3 | 0.00 | 0.00 | 0.00 | 88 | 1013.5 |
| 20260510020921 | 62 | 155 | 0.9 | 2.6 | 0.00 | 0.00 | 0.00 | 88 | 1013.3 |
| 20260510020821 | 62 | 155 | 0.9 | 2.6 | 0.00 | 0.00 | 0.00 | 87 | 1013.3 |
| 20260510020717 | 62 | 155 | 0.9 | 2.6 | 0.00 | 0.00 | 0.00 | 87 | 1013.3 |
| 20260510020617 | 62 | 155 | 0.9 | 2.6 | 0.00 | 0.00 | 0.00 | 87 | 1013.4 |
| 20260510020517 | 62 | 156 | 0.9 | 2.6 | 0.00 | 0.00 | 0.00 | 87 | 1013.4 |
| 20260510020417 | 62 | 155 | 0.9 | 2.6 | 0.00 | 0.00 | 0.00 | 87 | 1013.3 |
| 20260510020317 | 62 | 155 | 0.9 | 2.6 | 0.00 | 0.00 | 0.00 | 87 | 1013.2 |
| 20260510020219 | 62 | 155 | 0.9 | 2.6 | 0.00 | 0.00 | 0.00 | 87 | 1013.2 |
| 20260510020117 | 62 | 155 | 0.9 | 2.6 | 0.00 | 0.00 | 0.00 | 87 | 1013.2 |
| 20260510020018 | 62 | 155 | 1.7 | 4.3 | 0.00 | 0.00 | 0.00 | 87 | 1013.2 |
| 20260510015917 | 62 | 155 | 1.7 | 4.3 | 0.00 | 0.00 | 0.00 | 87 | 1013.2 |
| 20260510015716 | 62 | 155 | 1.7 | 4.3 | 0.00 | 0.00 | 0.00 | 87 | 1013.1 |
| 20260510015616 | 62 | 153 | 1.7 | 4.3 | 0.00 | 0.00 | 0.00 | 87 | 1013.2 |
| 20260510015518 | 62 | 153 | 1.7 | 4.3 | 0.00 | 0.00 | 0.00 | 87 | 1013.1 |
| 20260510015416 | 62 | 153 | 1.7 | 4.3 | 0.00 | 0.00 | 0.00 | 87 | 1013.0 |
| 20260510015316 | 62 | 157 | 1.7 | 4.3 | 0.00 | 0.00 | 0.00 | 87 | 1013.0 |
| 20260510015216 | 62 | 157 | 1.7 | 4.3 | 0.00 | 0.00 | 0.00 | 87 | 1013.0 |
| 20260510015116 | 62 | 157 | 1.7 | 4.3 | 0.00 | 0.00 | 0.00 | 87 | 1012.9 |
| 20260510015016 | 62 | 163 | 1.7 | 4.3 | 0.00 | 0.00 | 0.00 | 87 | 1012.9 |
| 20260510014916 | 62 | 188 | 1.7 | 5.2 | 0.00 | 0.00 | 0.00 | 87 | 1012.9 |
| 20260510014817 | 62 | 188 | 1.7 | 5.2 | 0.00 | 0.00 | 0.00 | 87 | 1012.9 |
| 20260510014716 | 62 | 188 | 1.7 | 5.2 | 0.00 | 0.00 | 0.00 | 87 | 1012.8 |
| 20260510014617 | 62 | 189 | 1.7 | 5.2 | 0.00 | 0.00 | 0.00 | 87 | 1012.8 |
| 20260510014517 | 62 | 191 | 1.7 | 5.2 | 0.00 | 0.00 | 0.00 | 87 | 1012.8 |
| 20260510014417 | 62 | 171 | 1.7 | 5.2 | 0.00 | 0.00 | 0.00 | 87 | 1012.8 |
| 20260510014317 | 62 | 174 | 1.7 | 5.2 | 0.00 | 0.00 | 0.00 | 87 | 1012.8 |
| 20260510014217 | 62 | 151 | 1.7 | 5.2 | 0.00 | 0.00 | 0.00 | 86 | 1012.8 |
| 20260510014116 | 62 | 151 | 0.9 | 5.2 | 0.00 | 0.00 | 0.00 | 86 | 1012.8 |
| 20260510014016 | 62 | 150 | 0.9 | 5.2 | 0.00 | 0.00 | 0.00 | 86 | 1012.8 |
| 20260510013916 | 62 | 186 | 0.9 | 3.5 | 0.00 | 0.00 | 0.00 | 86 | 1012.8 |
| 20260510013817 | 62 | 186 | 0.9 | 3.5 | 0.00 | 0.00 | 0.00 | 86 | 1012.8 |
| 20260510013716 | 62 | 187 | 0.9 | 5.2 | 0.00 | 0.00 | 0.00 | 86 | 1012.9 |
| 20260510013616 | 62 | 188 | 0.9 | 5.2 | 0.00 | 0.00 | 0.00 | 86 | 1012.8 |
| 20260510013517 | 62 | 188 | 0.9 | 5.2 | 0.00 | 0.00 | 0.00 | 86 | 1012.8 |
| 20260510013413 | 63 | 195 | 0.9 | 5.2 | 0.00 | 0.00 | 0.00 | 86 | 1012.8 |
| 20260510013313 | 63 | 197 | 1.7 | 5.2 | 0.00 | 0.00 | 0.00 | 86 | 1012.8 |
| 20260510013212 | 62 | 197 | 1.7 | 5.2 | 0.00 | 0.00 | 0.00 | 86 | 1012.8 |
| 20260510013113 | 63 | 197 | 1.7 | 5.2 | 0.00 | 0.00 | 0.00 | 86 | 1012.8 |
| 20260510013012 | 63 | 196 | 1.7 | 5.2 | 0.00 | 0.00 | 0.00 | 86 | 1012.7 |
| 20260510012913 | 63 | 198 | 1.7 | 5.2 | 0.00 | 0.00 | 0.00 | 86 | 1012.7 |
| 20260510012813 | 63 | 196 | 2.6 | 5.2 | 0.00 | 0.00 | 0.00 | 86 | 1012.7 |
| 20260510012712 | 63 | 201 | 2.6 | 5.2 | 0.00 | 0.00 | 0.00 | 86 | 1012.6 |
| 20260510012612 | 63 | 188 | 1.7 | 5.2 | 0.00 | 0.00 | 0.00 | 86 | 1012.6 |
| 20260510012513 | 63 | 178 | 1.7 | 5.2 | 0.00 | 0.00 | 0.00 | 86 | 1012.7 |
| 20260510012413 | 63 | 229 | 2.6 | 5.2 | 0.00 | 0.00 | 0.00 | 86 | 1012.6 |
| 20260510012313 | 63 | 168 | 2.6 | 6.1 | 0.00 | 0.00 | 0.00 | 86 | 1012.7 |
| 20260510012212 | 63 | 178 | 2.6 | 6.1 | 0.00 | 0.00 | 0.00 | 86 | 1012.7 |
| 20260510012114 | 63 | 178 | 2.6 | 6.1 | 0.00 | 0.00 | 0.00 | 86 | 1012.6 |
| 20260510012013 | 63 | 173 | 2.6 | 6.1 | 0.00 | 0.00 | 0.00 | 86 | 1012.7 |
| 20260510011913 | 63 | 183 | 2.6 | 6.1 | 0.00 | 0.00 | 0.00 | 86 | 1012.6 |
| 20260510011813 | 63 | 177 | 2.6 | 7.0 | 0.00 | 0.00 | 0.00 | 86 | 1012.5 |
| 20260510011713 | 63 | 155 | 2.6 | 7.0 | 0.00 | 0.00 | 0.00 | 86 | 1012.5 |
| 20260510011612 | 63 | 167 | 2.6 | 7.0 | 0.00 | 0.00 | 0.00 | 85 | 1012.6 |
| 20260510011514 | 63 | 198 | 2.6 | 7.0 | 0.00 | 0.00 | 0.00 | 85 | 1012.5 |
| 20260510011412 | 63 | 135 | 1.7 | 7.0 | 0.00 | 0.00 | 0.00 | 85 | 1012.4 |
| 20260510011312 | 63 | 178 | 1.7 | 7.0 | 0.00 | 0.00 | 0.00 | 85 | 1012.5 |
| 20260510011212 | 63 | 138 | 2.6 | 7.0 | 0.00 | 0.00 | 0.00 | 85 | 1012.5 |
| 20260510011113 | 63 | 168 | 2.6 | 7.0 | 0.00 | 0.00 | 0.00 | 85 | 1012.5 |
| 20260510011012 | 63 | 168 | 2.6 | 7.0 | 0.00 | 0.00 | 0.00 | 85 | 1012.4 |
| 20260510010913 | 63 | 181 | 1.7 | 7.0 | 0.00 | 0.00 | 0.00 | 85 | 1012.4 |
| 20260510010804 | 63 | 201 | 1.7 | 6.1 | 0.00 | 0.00 | 0.00 | 85 | 1012.3 |
| 20260510010704 | 63 | 157 | 1.7 | 6.1 | 0.00 | 0.00 | 0.00 | 85 | 1012.3 |
| 20260510010605 | 63 | 156 | 1.7 | 6.1 | 0.00 | 0.00 | 0.00 | 85 | 1012.3 |
| 20260510010504 | 63 | 190 | 1.7 | 6.1 | 0.00 | 0.00 | 0.00 | 85 | 1012.3 |
| 20260510010405 | 63 | 178 | 1.7 | 6.1 | 0.00 | 0.00 | 0.00 | 84 | 1012.2 |
| 20260510010305 | 63 | 178 | 1.7 | 6.1 | 0.00 | 0.00 | 0.00 | 84 | 1012.3 |
| 20260510010204 | 63 | 172 | 1.7 | 5.2 | 0.00 | 0.00 | 0.00 | 84 | 1012.2 |
| 20260510010104 | 63 | 165 | 1.7 | 5.2 | 0.00 | 0.00 | 0.00 | 84 | 1012.3 |
| 20260510010005 | 63 | 165 | 1.7 | 5.2 | 0.00 | 0.00 | 0.00 | 84 | 1012.3 |
| 20260510005905 | 63 | 167 | 1.7 | 5.2 | 0.00 | 0.00 | 0.00 | 84 | 1012.2 |
| 20260510005805 | 64 | 179 | 1.7 | 5.2 | 0.00 | 0.00 | 0.00 | 84 | 1012.2 |
| 20260510005704 | 64 | 179 | 1.7 | 5.2 | 0.00 | 0.00 | 0.00 | 84 | 1012.2 |
| 20260510005604 | 63 | 178 | 1.7 | 5.2 | 0.00 | 0.00 | 0.00 | 84 | 1012.1 |
| 20260510005505 | 64 | 178 | 1.7 | 5.2 | 0.00 | 0.00 | 0.00 | 84 | 1012.0 |
| 20260510005404 | 64 | 180 | 1.7 | 5.2 | 0.00 | 0.00 | 0.00 | 84 | 1012.0 |
| 20260510005306 | 64 | 156 | 1.7 | 5.2 | 0.00 | 0.00 | 0.00 | 84 | 1012.1 |
| 20260510005205 | 64 | 181 | 1.7 | 5.2 | 0.00 | 0.00 | 0.00 | 84 | 1012.1 |
| 20260510005104 | 64 | 171 | 1.7 | 5.2 | 0.00 | 0.00 | 0.00 | 84 | 1011.8 |
| 20260510005005 | 64 | 190 | 1.7 | 7.0 | 0.00 | 0.00 | 0.00 | 84 | 1012.0 |
| 20260510004904 | 64 | 177 | 1.7 | 7.0 | 0.00 | 0.00 | 0.00 | 84 | 1012.0 |
| 20260510004805 | 64 | 179 | 1.7 | 7.0 | 0.00 | 0.00 | 0.00 | 84 | 1011.8 |
| 20260510004705 | 64 | 164 | 1.7 | 7.0 | 0.00 | 0.00 | 0.00 | 83 | 1011.8 |
| 20260510004604 | 64 | 165 | 1.7 | 7.0 | 0.00 | 0.00 | 0.00 | 83 | 1011.8 |
| 20260510004505 | 64 | 163 | 1.7 | 7.0 | 0.00 | 0.00 | 0.00 | 83 | 1011.7 |
| 20260510004405 | 64 | 163 | 1.7 | 7.0 | 0.00 | 0.00 | 0.00 | 83 | 1011.8 |
| 20260510004305 | 64 | 163 | 1.7 | 7.0 | 0.00 | 0.00 | 0.00 | 83 | 1011.8 |
| 20260510004205 | 64 | 161 | 1.7 | 7.0 | 0.00 | 0.00 | 0.00 | 83 | 1011.8 |
| 20260510004104 | 64 | 160 | 1.7 | 7.0 | 0.00 | 0.00 | 0.00 | 83 | 1011.8 |
| 20260510004005 | 64 | 202 | 1.7 | 7.0 | 0.00 | 0.00 | 0.00 | 83 | 1011.8 |
| 20260510003905 | 64 | 148 | 1.7 | 4.3 | 0.00 | 0.00 | 0.00 | 83 | 1011.8 |
| 20260510003806 | 64 | 203 | 1.7 | 4.3 | 0.00 | 0.00 | 0.00 | 83 | 1011.7 |
| 20260510003705 | 64 | 213 | 1.7 | 4.3 | 0.00 | 0.00 | 0.00 | 83 | 1011.7 |
| 20260510003606 | 64 | 234 | 1.7 | 4.3 | 0.00 | 0.00 | 0.00 | 83 | 1011.8 |
| 20260510003500 | 64 | 196 | 1.7 | 4.3 | 0.00 | 0.00 | 0.00 | 83 | 1011.7 |
| 20260510003402 | 64 | 196 | 1.7 | 5.2 | 0.00 | 0.00 | 0.00 | 83 | 1011.7 |
| 20260510003300 | 64 | 198 | 1.7 | 5.2 | 0.00 | 0.00 | 0.00 | 82 | 1011.7 |
| 20260510003200 | 64 | 185 | 1.7 | 5.2 | 0.00 | 0.00 | 0.00 | 82 | 1011.7 |
| 20260510003101 | 64 | 184 | 1.7 | 5.2 | 0.00 | 0.00 | 0.00 | 82 | 1011.6 |
| 20260510003003 | 64 | 166 | 1.7 | 5.2 | 0.00 | 0.00 | 0.00 | 82 | 1011.6 |
| 20260510002901 | 64 | 169 | 1.7 | 5.2 | 0.00 | 0.00 | 0.00 | 82 | 1011.7 |
| 20260510002800 | 64 | 169 | 1.7 | 5.2 | 0.00 | 0.00 | 0.00 | 82 | 1011.5 |
| 20260510002700 | 64 | 179 | 1.7 | 5.2 | 0.00 | 0.00 | 0.00 | 82 | 1011.6 |
| 20260510002602 | 64 | 182 | 1.7 | 5.2 | 0.00 | 0.00 | 0.00 | 82 | 1011.6 |
| 20260510002501 | 64 | 182 | 1.7 | 5.2 | 0.00 | 0.00 | 0.00 | 82 | 1011.5 |
| 20260510002401 | 64 | 156 | 1.7 | 5.2 | 0.00 | 0.00 | 0.00 | 82 | 1011.5 |
| 20260510002201 | 65 | 186 | 1.7 | 4.3 | 0.00 | 0.00 | 0.00 | 81 | 1011.5 |
| 20260510002102 | 65 | 180 | 1.7 | 4.3 | 0.00 | 0.00 | 0.00 | 81 | 1011.5 |
| 20260510002001 | 65 | 208 | 1.7 | 4.3 | 0.00 | 0.00 | 0.00 | 81 | 1011.4 |
| 20260510001900 | 65 | 219 | 1.7 | 4.3 | 0.00 | 0.00 | 0.00 | 81 | 1011.5 |
| 20260510001802 | 65 | 169 | 1.7 | 4.3 | 0.00 | 0.00 | 0.00 | 81 | 1011.4 |
| 20260510001700 | 65 | 169 | 1.7 | 4.3 | 0.00 | 0.00 | 0.00 | 81 | 1011.4 |
| 20260510001601 | 65 | 169 | 1.7 | 4.3 | 0.00 | 0.00 | 0.00 | 81 | 1011.3 |
| 20260510001501 | 65 | 167 | 1.7 | 4.3 | 0.00 | 0.00 | 0.00 | 81 | 1011.4 |
| 20260510001402 | 65 | 167 | 1.7 | 4.3 | 0.00 | 0.00 | 0.00 | 81 | 1011.4 |
| 20260510001300 | 65 | 167 | 0.9 | 4.3 | 0.00 | 0.00 | 0.00 | 81 | 1011.4 |
| 20260510001201 | 65 | 167 | 0.9 | 4.3 | 0.00 | 0.00 | 0.00 | 81 | 1011.4 |
| 20260510001100 | 65 | 165 | 0.9 | 3.5 | 0.00 | 0.00 | 0.00 | 80 | 1011.5 |
| 20260510001001 | 65 | 165 | 0.9 | 3.5 | 0.00 | 0.00 | 0.00 | 80 | 1011.4 |
| 20260510000902 | 65 | 165 | 0.9 | 3.5 | 0.00 | 0.00 | 0.00 | 80 | 1011.4 |
| 20260510000800 | 65 | 179 | 0.9 | 3.5 | 0.00 | 0.00 | 0.00 | 80 | 1011.4 |
| 20260510000701 | 65 | 179 | 1.7 | 3.5 | 0.00 | 0.00 | 0.00 | 80 | 1011.3 |
| 20260510000602 | 65 | 179 | 1.7 | 3.5 | 0.00 | 0.00 | 0.00 | 80 | 1011.3 |
| 20260510000500 | 65 | 157 | 1.7 | 3.5 | 0.00 | 0.00 | 0.00 | 80 | 1011.3 |
| 20260510000359 | 65 | 159 | 1.7 | 3.5 | 0.00 | 0.00 | 0.00 | 80 | 1011.3 |
| 20260510000304 | 65 | 159 | 1.7 | 3.5 | 0.00 | 0.00 | 0.00 | 80 | 1011.3 |
| 20260510000155 | 65 | 158 | 1.7 | 4.3 | 0.00 | 0.00 | 0.00 | 80 | 1011.3 |
| 20260510000054 | 65 | 159 | 1.7 | 4.3 | 0.00 | 0.00 | 0.00 | 80 | 1011.3 |
| 20260509235956 | 65 | 158 | 1.7 | 4.3 | 0.00 | 0.00 | 0.00 | 80 | 1011.3 |
| 20260509235854 | 65 | 158 | 1.7 | 4.3 | 0.00 | 0.00 | 0.00 | 80 | 1011.3 |
| 20260509235753 | 65 | 158 | 1.7 | 4.3 | 0.00 | 0.00 | 0.00 | 80 | 1011.3 |
| 20260509235646 | 66 | 157 | 1.7 | 4.3 | 0.00 | 0.00 | 0.00 | 79 | 1011.3 |
| 20260509235547 | 66 | 157 | 1.7 | 4.3 | 0.00 | 0.00 | 0.00 | 79 | 1011.4 |
| 20260509235443 | 66 | 157 | 1.7 | 4.3 | 0.00 | 0.00 | 0.00 | 79 | 1011.3 |
| 20260509235342 | 66 | 157 | 1.7 | 4.3 | 0.00 | 0.00 | 0.00 | 79 | 1011.3 |
| 20260509235238 | 66 | 157 | 1.7 | 4.3 | 0.00 | 0.00 | 0.00 | 79 | 1011.3 |
| 20260509235137 | 66 | 161 | 1.7 | 3.5 | 0.00 | 0.00 | 0.00 | 79 | 1011.3 |
| 20260509235037 | 66 | 162 | 1.7 | 3.5 | 0.00 | 0.00 | 0.00 | 79 | 1011.4 |
| 20260509234937 | 66 | 162 | 1.7 | 4.3 | 0.00 | 0.00 | 0.00 | 79 | 1011.3 |